Skip Navigation Links weather.gov 
NOAA logo-Select to go to the NOAA homepage NDBC Title GraphicClick to go to NDBC home page   Select to go to the NWS homepage
Home About Us Contact Us
 
 
    
    Station List

 Data Access
    Mobile Access
    Classic Maps
         Recent
         DART®
    Obs Search
    Ship Obs Report
    BuoyCAMs
    TAO
    DODS
    OceanSITES
    HF Radar
    OSMC
    Dial-A-Buoy
    RSS Feeds Image indicating link to RSS feed access page
    Web Widget
    Email Access
    Web Data Guide
    Maintenance Schedule
    Station Status Report

 Program Info
    TAO
    DART®
    IOOS®

 Publications
    NDBC PEA
    NDBC FONSI
    NDBC DQC Handbook

 FAQ
 Visitor Information
 
USA.gov is the U.S. government's official web portal to all federal, state and local government web resources and services.

Station MLSC1 - Moss Landing, South Harbor, CA Image indicating link to RSS feed of recent meteorological observations for station MLSC1

Station operated by Moss Landing Marine Laboratory
Coastal Marine Station
36.802 N 121.791 W (36°48'9" N 121°47'29" W)

Site elevation: 3.05 m above mean sea level
Anemometer height: 10.4 m above site elevation

Search And Rescue (SAR) Data

Meteorological Observations from Nearby Stations and Ships Image indicating link to RSS feed of recent meteorological observations near station MLSC1

Regional HF Radar Surface Current Observations

Station MLSC1
Large icon indicates selected station.
yellow diamond Stations with recent data
red diamond Stations with no data in last 8 hours
     (24 hours for tsunami stations)


Conditions at MLSC1 as of
(1:11 am PST)
0911 GMT on 12/11/2018:
     

Click on the graph icon in the table below to see a time series plot of the last five days of that observation.

5-day plot - Wind Direction Wind Direction (WDIR): SE ( 140 deg true )
5-day plot - Wind Speed Wind Speed (WSPD): 1.9 kts
5-day plot - Wind Gust Wind Gust (GST): 5.1 kts
5-day plot - Atmospheric Pressure Atmospheric Pressure (PRES): 30.20 in
5-day plot - Air Temperature Air Temperature (ATMP): 46.4 °F
5-day plot - Salinity Salinity (SAL): 33.59 psu
5-day plot - Dew Point Dew Point (DEWP): 43.7 °F
5-day plot - Wind Speed at 10 Meters Wind Speed at 10 meters (WSPD10M): 1.9 kts
5-day plot - Wind Speed at 10 Meters Wind Speed at 20 meters (WSPD20M): 1.9 kts
5-day plot - Wind Speed, Wind Gust and Atmospheric Pressure Combined plot of Wind Speed, Gust, and Air Pressure
Previous observations
5-day plot - Wind Direction 5-day plot - Wind Speed 5-day plot - Wind Gust 5-day plot - Wave Height 5-day plot - Dominant Wave Period 5-day plot - Average Period 5-day plot - Mean Wave Direction 5-day plot - Atmospheric Pressure 5-day plot - Pressure Tendency 5-day plot - Air Temperature 5-day plot - Water Temperature 5-day plot - Dew Point 5-day plot - Salinity 5-day plot - Visibility 5-day plot - Tide (above MLLW)
MM DD TIME
(PST)
WDIR WSPD
kts
GST
kts
WVHT
ft
DPD
sec
APD
sec
MWD PRES
in
PTDY
in
ATMP
°F
WTMP
°F
DEWP
°F
SAL
psu
VIS
nmi
TIDE
ft
1211 1:10 am SE 1.9 6.0----30.20- 46.4- 43.7---
1211 1:09 amSSE 1.9 6.0----30.20- 47.3- 45.0---
1211 1:08 am SE 2.9 8.0----30.20- 48.0- 45.3---
1211 1:07 amESE 2.9 8.0----30.20- 47.7- 45.0---
1211 1:06 amESE 1.9 7.0----30.20- 47.5- 45.0---
1211 1:05 amESE 1.9 5.1----30.20- 47.5- 45.0---
1211 1:04 amESE 1.0 5.1----30.20- 47.3- 44.8---
1211 1:03 am- 0.0 0.0----30.20- 46.9- 44.4---
1211 1:02 am- 0.0 0.0----30.20- 46.8- 44.1---
1211 1:01 am S 1.0 4.1----30.20- 46.8- 44.2---
1211 1:00 am S 1.0 4.1----30.20- 46.8- 44.1---
121112:59 am- 0.0 1.9----30.20- 46.9- 44.2---
121112:58 amSSE 1.0 4.1----30.20- 46.9- 44.1---
121112:57 am- 0.0 1.9----30.20- 46.9- 44.2---
121112:56 amSSE 1.9 4.1----30.20- 46.9- 44.1---
121112:55 amSSE 1.9 4.1----30.20- 47.3- 44.4---
121112:54 amSSE 1.0 2.9----30.20- 47.7- 44.8---
121112:53 am- 0.0 1.9----30.20- 47.7- 44.8---
121112:52 am- 0.0 1.9----30.20- 47.7- 44.8---
121112:51 am- 0.0 1.9----30.20- 47.5- 44.6---
121112:50 am- 0.0 1.9----30.20- 47.5- 44.4---
121112:49 am- 0.0 1.9----30.20- 47.5- 44.6---
121112:48 am SE 1.0 2.9----30.20+0.01 47.5- 44.4---
121112:47 am- 0.0 1.9----30.20- 47.3- 44.2---
121112:46 am- 0.0 1.9----30.20- 47.3- 44.2---
121112:45 am- 0.0 1.0----30.20- 47.5- 44.1---
121112:44 am- 0.0 1.9----30.20- 47.8- 44.6---
121112:43 am- 0.0 2.9----30.20- 48.2- 45.0---
121112:42 am SE 1.0 2.9----30.20- 48.4- 45.1---
121112:41 am SE 1.0 2.9----30.20- 48.6- 45.1---
121112:40 am SE 1.9 4.1----30.20- 48.6- 45.3---
121112:39 am SE 1.0 4.1----30.20- 48.7- 45.3---
121112:38 am SE 1.0 4.1----30.20- 48.9- 45.7---
121112:37 am- 0.0 1.0----30.20- 49.3- 46.0---
121112:36 am- 0.0 2.9----30.20- 49.3- 46.0---
121112:35 am E 1.9 4.1----30.20- 49.3- 46.0---
121112:34 am E 1.9 4.1----30.20- 49.3- 46.0---
121112:33 am E 1.0 4.1----30.20- 49.5- 46.0---
121112:32 am E 1.9 4.1----30.20- 49.5- 46.2---
121112:31 amENE 1.9 6.0----30.20- 49.3- 46.0---
121112:30 amENE 1.9 6.0----30.20- 49.1- 46.0---
121112:29 amENE 1.9 5.1----30.20- 48.9- 46.0---
121112:28 am E 1.0 4.1----30.20- 48.7- 45.7---
121112:27 am E 1.9 4.1----30.20- 48.4- 45.7---
121112:26 am E 1.0 4.1----30.20- 48.4- 45.3---
121112:25 am E 1.0 4.1----30.20- 48.2- 45.3---
121112:24 amESE 1.0 2.9----30.20- 48.4- 45.3---
121112:23 am- 0.0 2.9----30.20- 48.4- 45.3---
121112:22 am E 1.0 4.1----30.20- 48.2- 45.3---
121112:21 am- 0.0 0.0----30.20- 48.2- 45.5---
121112:20 am- 0.0 0.0----30.20- 48.2- 45.3---
121112:19 am- 0.0 0.0----30.20- 48.0- 45.1---
121112:18 am- 0.0 0.0----30.20- 48.0- 45.3---
121112:17 am- 0.0 0.0----30.20- 48.2- 45.5---
121112:16 am- 0.0 0.0----30.20- 48.4- 45.5---
121112:15 am- 0.0 0.0----30.20- 48.6- 45.5---
121112:14 am- 0.0 0.0----30.20- 48.7- 45.7 33.58--
121112:13 am E 1.0 2.9----30.20- 48.7- 45.7---
121112:12 am E 1.0 2.9----30.20- 48.7- 45.7---
121112:11 am E 1.9 4.1----30.20- 48.7- 45.7---
121112:10 amENE 1.0 4.1----30.20- 48.6- 45.5---
121112:09 am NE 1.0 4.1----30.20- 48.4- 45.5---
121112:08 am- 0.0 1.9----30.20- 48.0- 45.1---
121112:07 am- 0.0 0.0----30.20- 47.8- 45.1---
121112:06 am- 0.0 4.1----30.20- 47.7- 44.6---
121112:05 am- 0.0 0.0----30.20- 47.5- 44.6---
121112:04 am- 0.0 0.0----30.20- 47.8- 44.8---
121112:03 am- 0.0 0.0----30.20- 47.8- 44.8---
121112:02 am- 0.0 0.0----30.20- 48.0- 45.0---
121112:01 am- 0.0 0.0----30.20- 48.2- 45.0---
121112:00 amESE 1.0 4.1----30.20+0.01 48.2- 45.1---
121011:47 pmESE 4.1 11.1----30.20- 48.2- 44.8---
121011:46 pmESE 4.1 9.9----30.20- 48.2- 44.8---
121011:45 pmESE 4.1 11.1----30.20- 48.4- 44.8---
121011:44 pmESE 5.1 13.0----30.20- 48.4- 45.0---
121011:43 pmESE 5.1 13.0----30.20- 48.4- 44.8---
121011:42 pmESE 4.1 12.0----30.20- 48.4- 45.0---
121011:41 pmESE 2.9 9.9----30.20- 48.6- 45.0---
121011:40 pmESE 4.1 8.9----30.20- 48.6- 45.0---
121011:39 pmESE 4.1 9.9----30.20- 48.6- 45.0---
121011:38 pmESE 4.1 11.1----30.20- 48.6- 45.0---
121011:37 pmESE 2.9 8.9----30.20- 48.7- 45.1---
121011:36 pmESE 4.1 14.0----30.20- 48.6- 44.8---
121011:35 pmESE 5.1 13.0----30.20- 48.6- 45.0---
121011:34 pmESE 5.1 13.0----30.20- 48.4- 44.8---
121011:33 pmESE 5.1 13.0----30.20- 48.6- 44.8---
121011:32 pmESE 6.0 14.0----30.20- 48.6- 45.1---
121011:31 pmESE 5.1 14.0----30.20- 48.2- 44.6---
121011:30 pmESE 5.1 12.0----30.20- 48.2- 44.6---
121011:29 pmESE 4.1 11.1----30.20- 47.8- 44.2---
121011:28 pmESE 4.1 9.9----30.20- 47.8- 44.2---
121011:27 pmESE 4.1 9.9----30.20- 47.8- 44.4---
121011:26 pmESE 4.1 8.9----30.20- 47.7- 44.2---
121011:25 pmESE 2.9 8.9----30.20- 47.8- 44.2---
121011:24 pmESE 2.9 8.9----30.20- 47.7- 44.2---
121011:23 pmESE 2.9 8.9----30.20- 47.7- 44.1---
121011:22 pmESE 2.9 8.0----30.20- 47.5- 43.9---
121011:21 pm SE 2.9 8.0----30.20- 47.7- 44.1---
121011:20 pm SE 2.9 6.0----30.20- 48.4- 44.6---
121011:19 pmESE 1.9 6.0----30.20- 48.4- 44.6---
121011:18 pmESE 1.9 6.0----30.20- 48.7- 44.8---
121011:17 pmESE 1.9 6.0----30.19- 48.7- 45.0---
121011:16 pmESE 2.9 7.0----30.19- 48.7- 44.8---
121011:15 pmESE 2.9 7.0----30.19- 49.1- 45.1---
121011:14 pmESE 2.9 7.0----30.19- 49.1- 45.1 33.58--
121011:13 pmESE 2.9 7.0----30.19- 49.1- 45.0---
121011:12 pm SE 2.9 7.0----30.19- 49.3- 45.1---
121011:11 pmESE 1.9 7.0----30.19- 49.3- 45.1---
121011:10 pmESE 2.9 8.0----30.19- 49.3- 45.1---
121011:09 pmESE 2.9 8.9----30.19- 49.5- 45.1---
121011:08 pmESE 2.9 8.9----30.19- 49.5- 45.1---
121011:07 pmESE 2.9 8.0----30.19- 49.5- 45.1---
121011:06 pmESE 2.9 8.9----30.19- 49.3- 45.0---
121011:05 pmESE 2.9 8.9----30.19- 48.9- 44.8---
121011:04 pmESE 2.9 8.9----30.19- 48.9- 44.6---
121011:03 pmESE 4.1 9.9----30.19- 48.9- 44.6---
121011:02 pm SE 2.9 8.0----30.19- 49.5- 45.1---
121011:01 pmESE 2.9 7.0----30.19- 49.8- 45.3---
121011:00 pmESE 2.9 7.0----30.19- 50.0- 45.3---
121010:59 pm E 2.9 8.0----30.19- 50.0- 45.5---
121010:58 pm E 2.9 8.9----30.20- 50.0- 45.3---
121010:57 pm E 2.9 8.9----30.20- 49.8- 45.1---
121010:56 pm E 2.9 8.9----30.20- 49.8- 45.3---
121010:55 pm E 4.1 9.9----30.20- 49.8- 44.8---
121010:54 pmESE 2.9 8.0----30.19- 50.0- 45.3---
121010:53 pm E 2.9 9.9----30.20- 49.6- 44.4---
121010:52 pmESE 2.9 8.0----30.20- 49.6- 44.8---
121010:51 pmESE 2.9 8.0----30.20- 49.5- 43.7---
121010:50 pm SE 2.9 8.0----30.20- 51.6- 45.7---
121010:49 pmESE 2.9 8.0----30.19- 52.0- 46.0---
121010:48 pmESE 4.1 11.1----30.19+0.02 52.3- 46.0---
121010:47 pm E 4.1 9.9----30.19- 52.5- 46.2---
121010:46 pm E 4.1 11.1----30.19- 52.5- 46.2---
121010:45 pm E 5.1 12.0----30.19- 52.5- 46.2---
121010:44 pm E 5.1 14.0----30.19- 52.5- 46.0---
121010:43 pm E 5.1 14.0----30.19- 52.5- 46.2---
121010:42 pm E 4.1 12.0----30.19- 52.5- 46.2---
121010:41 pm E 6.0 15.9----30.19- 52.5- 46.2---
121010:40 pm E 5.1 13.0----30.19- 52.5- 46.2---
121010:39 pm E 5.1 13.0----30.19- 52.7- 46.2---
121010:38 pm E 5.1 12.0----30.19- 52.9- 46.4---
121010:37 pmENE 5.1 15.0----30.19- 52.9- 46.4---
121010:36 pm E 6.0 19.0----30.19- 52.7- 46.4---
121010:35 pm E 6.0 17.1----30.19- 52.7- 46.4---
121010:34 pm E 6.0 15.0----30.19- 52.5- 46.4---
121010:33 pm E 7.0 20.0----30.19- 52.3- 46.4---
121010:32 pm E 6.0 18.1----30.19- 52.2- 46.2---
121010:31 pm E 5.1 15.9----30.19- 52.2- 46.2---
121010:30 pm E 5.1 15.0----30.19- 52.2- 46.2---
121010:29 pm E 5.1 14.0----30.19- 52.3- 46.4---
121010:28 pmESE 4.1 13.0----30.19- 52.3- 46.4---
121010:27 pm E 5.1 14.0----30.19- 52.3- 46.4---
121010:26 pm E 5.1 14.0----30.19- 52.2- 46.2---
121010:25 pmESE 4.1 13.0----30.19- 52.3- 46.6---
121010:24 pm E 5.1 14.0----30.19- 51.8- 46.0---
121010:23 pm E 4.1 11.1----30.19- 52.0- 46.4---
121010:22 pm E 4.1 9.9----30.19- 52.2- 46.4---
121010:21 pm E 4.1 11.1----30.19- 52.0- 46.4---
121010:20 pm E 2.9 8.9----30.19- 52.0- 46.4---
121010:19 pm E 2.9 8.0----30.20- 52.2- 46.4---
121010:18 pm E 2.9 8.0----30.19- 52.3- 46.6---
121010:17 pm E 2.9 9.9----30.19- 52.3- 46.6---
121010:16 pm E 2.9 8.9----30.19- 52.5- 46.8---
121010:15 pmENE 2.9 13.0----30.19- 52.5- 46.6---
121010:14 pmENE 2.9 9.9----30.19- 52.3- 46.6 33.57--
121010:13 pmENE 1.9 6.0----30.19- 52.3- 46.6---
121010:12 pm E 1.9 6.0----30.19- 52.3- 46.6---
121010:11 pmENE 1.9 7.0----30.19- 52.3- 46.4---
121010:10 pm NE 1.9 7.0----30.19- 52.3- 46.6---
121010:09 pmENE 2.9 9.9----30.19- 52.0- 46.2---
121010:08 pm NE 2.9 9.9----30.19- 51.8- 46.2---
121010:07 pmNNE 2.9 7.0----30.19- 51.8- 46.4---
121010:06 pmNNE 1.9 6.0----30.19- 51.8- 46.4---
121010:05 pmNNE 1.9 5.1----30.19- 51.8- 46.4---
121010:04 pmNNE 1.9 6.0----30.19- 51.8- 46.4---
121010:03 pmNNE 1.9 7.0----30.19- 51.8- 46.4---
121010:02 pm N 1.9 7.0----30.19- 51.8- 46.4---
121010:01 pmNNE 1.9 5.1----30.19- 51.8- 46.4---
121010:00 pmNNE 1.9 8.0----30.19- 51.8- 46.4---
1210 9:59 pmNNE 1.9 6.0----30.19- 51.8- 46.4---
1210 9:58 pmNNE 1.9 7.0----30.19- 52.0- 46.4---
1210 9:57 pmNNE 2.9 8.0----30.19- 52.0- 46.4---
1210 9:56 pm NE 2.9 8.0----30.19- 52.0- 46.4---
1210 9:55 pmNNE 4.1 11.1----30.19- 52.0- 46.4---
1210 9:54 pmNNE 2.9 8.9----30.19- 52.0- 46.2---
1210 9:53 pmNNE 2.9 8.0----30.19- 52.2- 46.4---
1210 9:52 pmNNE 2.9 8.0----30.19- 52.3- 46.4---
1210 9:51 pm NE 4.1 11.1----30.19- 52.2- 46.4---
1210 9:50 pm NE 2.9 9.9----30.19- 52.2- 46.4---
1210 9:49 pm NE 4.1 9.9----30.19- 52.2- 46.6---
1210 9:48 pm NE 2.9 8.9----30.19+0.03 52.2- 46.6---
1210 9:47 pm NE 2.9 8.9----30.19- 52.2- 46.6---
1210 9:46 pm NE 2.9 8.0----30.19- 52.2- 46.6---
1210 9:45 pm NE 2.9 8.0----30.19- 52.0- 46.6---
1210 9:44 pm NE 4.1 9.9----30.19- 51.8- 46.6---
1210 9:43 pm NE 4.1 11.1----30.19- 51.8- 46.6---
1210 9:42 pm NE 2.9 8.0----30.19- 51.8- 46.6---
1210 9:41 pm NE 2.9 8.9----30.19- 51.8- 46.6---
1210 9:40 pm NE 2.9 7.0----30.19- 51.8- 46.4---
1210 9:39 pm NE 2.9 7.0----30.19- 51.8- 46.4---
1210 9:38 pm NE 2.9 7.0----30.19- 52.0- 46.4---
1210 9:37 pmNNE 2.9 8.0----30.19- 52.0- 46.6---
1210 9:36 pmNNE 1.9 5.1----30.19- 52.2- 46.6---
1210 9:35 pmNNE 1.9 7.0----30.19- 52.0- 46.6---
1210 9:34 pm N 1.9 7.0----30.19- 52.0- 46.6---
1210 9:33 pm N 1.9 8.9----30.19- 52.0- 46.4---
1210 9:32 pm N 2.9 9.9----30.19- 52.0- 46.4---
1210 9:31 pm N 2.9 9.9----30.19- 51.8- 46.2---
1210 9:30 pm N 1.9 7.0----30.19- 52.0- 46.2---
1210 9:29 pmNNE 1.9 6.0----30.19- 51.8- 46.2---
1210 9:28 pm N 1.0 4.1----30.19- 51.8- 46.2---
1210 9:27 pmNNE 1.0 5.1----30.19- 51.8- 46.2---
1210 9:26 pmNNE 1.9 7.0----30.19- 52.0- 46.2---
1210 9:25 pm NE 1.0 2.9----30.19- 52.0- 46.2---
1210 9:24 pm NE 1.0 4.1----30.19- 52.0- 46.2---
1210 9:23 pm NE 1.9 5.1----30.19- 52.0- 46.2---
1210 9:22 pm- 0.0 1.9----30.19- 52.0- 46.4---
1210 9:21 pm- 0.0 2.9----30.19- 52.2- 46.4---
1210 9:20 pm- 0.0 0.0----30.19- 52.2- 46.4---
1210 9:19 pm- 0.0 2.9----30.19- 52.3- 46.2---
1210 9:18 pm NE 1.9 6.0----30.19- 52.3- 46.4---
1210 9:17 pmNNE 2.9 8.9----30.19- 52.2- 46.2---
1210 9:16 pmNNE 2.9 8.0----30.19- 52.2- 46.2---
1210 9:15 pmNNE 1.9 7.0----30.19- 52.3- 46.4---
1210 9:14 pm N 1.9 6.0----30.19- 52.3- 46.4 33.57--
1210 9:13 pmNNE 1.9 5.1----30.19- 52.3- 46.6---
1210 9:12 pmNNE 2.9 8.9----30.19- 52.3- 46.4---
1210 9:11 pm NE 2.9 9.9----30.19- 52.3- 46.6---
1210 9:10 pm NE 1.9 5.1----30.19- 52.2- 46.6---
1210 9:09 pm NE 1.0 4.1----30.19- 52.2- 46.6---
1210 9:08 pm- 0.0 1.0----30.19- 52.2- 46.6---
1210 9:07 pm- 0.0 2.9----30.19- 52.3- 46.8---
1210 9:06 pm- 0.0 1.9----30.19- 52.3- 46.6---
1210 9:05 pmENE 1.9 6.0----30.19- 52.5- 46.6---
1210 9:04 pm NE 2.9 7.0----30.19- 52.5- 46.6---
1210 9:03 pm NE 2.9 8.0----30.19- 52.3- 46.4---
1210 9:02 pm NE 2.9 8.9----30.19- 52.5- 46.6---
1210 9:01 pm NE 2.9 8.0----30.19- 52.3- 46.4---
1210 9:00 pm NE 1.9 8.0----30.19- 52.3- 46.6---
1210 8:59 pm NE 1.9 7.0----30.19- 52.3- 46.4---
1210 8:58 pm NE 2.9 9.9----30.19- 52.3- 46.6---
1210 8:57 pm NE 2.9 7.0----30.19- 52.3- 46.4---
1210 8:56 pm NE 2.9 9.9----30.19- 52.3- 46.4---
1210 8:55 pm NE 4.1 12.0----30.19- 52.3- 46.4---
1210 8:54 pm NE 2.9 8.9----30.19- 52.2- 46.4---
1210 8:53 pm NE 2.9 8.0----30.19- 52.3- 46.6---
1210 8:52 pm NE 1.9 6.0----30.19- 52.3- 46.4---
1210 8:51 pm NE 2.9 7.0----30.19- 52.3- 46.4---
1210 8:50 pm NE 1.9 7.0----30.19- 52.3- 46.4---
1210 8:49 pm NE 2.9 7.0----30.19- 52.3- 46.4---
1210 8:48 pm NE 1.9 6.0----30.19+0.03 52.3- 46.4---
1210 8:47 pmNNE 1.9 6.0----30.19- 52.5- 46.4---
1210 8:46 pm NE 2.9 6.0----30.19- 52.7- 46.4---
1210 8:45 pm NE 2.9 7.0----30.18- 52.7- 46.4---
1210 8:44 pmNNE 2.9 7.0----30.18- 52.9- 46.4---
1210 8:43 pm NE 2.9 6.0----30.18- 52.9- 46.4---
1210 8:42 pmNNE 4.1 9.9----30.18- 52.9- 46.4---
1210 8:41 pmNNE 4.1 9.9----30.18- 52.9- 46.6---
1210 8:40 pm NE 2.9 9.9----30.18- 52.9- 46.6---
1210 8:39 pm NE 2.9 9.9----30.18- 52.9- 46.6---
1210 8:38 pm NE 1.9 6.0----30.18- 52.9- 46.8---
1210 8:37 pmENE 2.9 8.0----30.18- 53.1- 46.6---
1210 8:36 pm NE 2.9 8.0----30.18- 53.1- 46.8---
1210 8:35 pm NE 2.9 8.9----30.18- 53.1- 46.8---
1210 8:34 pm NE 2.9 8.9----30.18- 53.1- 46.8---
1210 8:33 pm NE 2.9 8.9----30.18- 52.9- 46.8---
1210 8:32 pmENE 2.9 9.9----30.18- 52.7- 46.6---
1210 8:31 pm- 0.0 2.9----30.18- 52.9- 46.8---
1210 8:30 pm E 1.9 6.0----30.18- 52.9- 46.8---
1210 8:29 pmENE 1.9 6.0----30.18- 53.1- 46.6---
1210 8:28 pmENE 1.9 7.0----30.18- 53.2- 46.8---
1210 8:27 pmENE 4.1 13.0----30.18- 53.2- 46.8---
1210 8:26 pmENE 5.1 15.0----30.18- 53.1- 46.8---
1210 8:25 pmENE 4.1 11.1----30.18- 52.9- 46.6---
1210 8:24 pmENE 2.9 9.9----30.18- 52.9- 46.6---
1210 8:23 pmENE 2.9 9.9----30.18- 53.1- 46.8---
1210 8:22 pmENE 2.9 9.9----30.18- 53.1- 46.8---
1210 8:21 pmENE 4.1 11.1----30.18- 53.1- 46.8---
1210 8:20 pmENE 4.1 9.9----30.18- 53.1- 46.6---
1210 8:19 pm E 2.9 9.9----30.18- 53.2- 46.8---
1210 8:18 pmENE 4.1 11.1----30.18- 53.2- 46.8---
1210 8:17 pmENE 4.1 9.9----30.18- 53.2- 46.8---
1210 8:16 pmENE 4.1 13.0----30.18- 53.2- 46.9---
1210 8:15 pmENE 4.1 12.0----30.18- 53.2- 46.8---
1210 8:14 pmENE 4.1 12.0----30.18- 53.2- 46.9 33.55--
1210 8:13 pmENE 5.1 15.0----30.18- 53.2- 46.9---
1210 8:12 pmENE 5.1 15.9----30.18- 52.9- 46.8---
1210 8:11 pmENE 4.1 11.1----30.18- 52.7- 46.6---
1210 8:10 pmENE 2.9 9.9----30.18- 52.7- 46.6---
1210 8:09 pm E 4.1 8.9----30.18- 52.9- 46.8---
1210 8:08 pm E 4.1 11.1----30.18- 52.7- 46.8---
1210 8:07 pm E 5.1 13.0----30.18- 52.7- 46.6---
1210 8:06 pm E 1.9 7.0----30.18- 52.7- 46.8---
1210 8:05 pm E 2.9 8.9----30.18- 52.7- 46.8---
1210 8:04 pm E 2.9 11.1----30.18- 52.7- 46.8---
1210 8:03 pm E 4.1 9.9----30.18- 52.5- 46.6---
1210 8:02 pm E 2.9 8.9----30.18- 52.3- 46.6---
1210 8:01 pmESE 1.9 6.0----30.18- 52.5- 46.6---
1210 8:00 pm E 1.9 6.0----30.18- 52.7- 46.6---
1210 7:59 pmESE 2.9 8.0----30.18- 52.7- 46.6---
1210 7:58 pmESE 2.9 8.0----30.17- 52.9- 46.6---
1210 7:57 pmESE 2.9 8.9----30.17- 52.9- 46.8---
1210 7:56 pmESE 4.1 9.9----30.17- 52.9- 46.6---
1210 7:55 pmESE 4.1 11.1----30.17- 52.7- 46.8---
1210 7:54 pmESE 2.9 12.0----30.17- 52.9- 46.8---
1210 7:53 pmESE 2.9 11.1----30.17- 52.9- 46.8---
1210 7:52 pm E 4.1 12.0----30.17- 52.9- 46.8---
1210 7:51 pmESE 2.9 8.9----30.17- 52.9- 46.8---
1210 7:50 pmESE 4.1 9.9----30.17- 52.9- 46.8---
1210 7:49 pm E 4.1 12.0----30.17- 52.7- 46.8---
1210 7:48 pmESE 2.9 8.9----30.17+0.03 52.7- 46.8---
1210 7:47 pmESE 4.1 9.9----30.17- 52.7- 46.8---
1210 7:46 pmESE 4.1 8.9----30.17- 52.7- 46.6---
1210 7:45 pmESE 2.9 7.0----30.17- 52.7- 46.8---
1210 7:44 pmESE 1.9 8.0----30.17- 52.7- 46.6---
1210 7:43 pm E 4.1 9.9----30.17- 52.9- 46.8---
1210 7:42 pm E 2.9 9.9----30.17- 52.7- 46.8---
1210 7:41 pmESE 2.9 9.9----30.17- 52.7- 46.8---
1210 7:40 pm E 2.9 7.0----30.17- 52.9- 46.8---
1210 7:39 pm E 2.9 7.0----30.17- 52.9- 46.8---
1210 7:38 pm E 1.9 6.0----30.17- 52.9- 46.8---
1210 7:37 pm E 2.9 8.9----30.17- 53.1- 46.8---
1210 7:36 pm E 2.9 11.1----30.17- 52.9- 46.8---
1210 7:35 pm E 2.9 9.9----30.17- 52.9- 46.8---
1210 7:34 pmESE 2.9 8.9----30.17- 52.9- 46.8---
1210 7:33 pmESE 2.9 9.9----30.17- 53.1- 46.8---
1210 7:32 pmESE 2.9 8.0----30.17- 53.2- 46.9---
1210 7:31 pmESE 4.1 11.1----30.17- 53.2- 46.9---
1210 7:30 pm E 4.1 9.9----30.17- 53.2- 46.9---
1210 7:29 pm E 4.1 13.0----30.17- 53.2- 46.8---
1210 7:28 pmESE 4.1 12.0----30.17- 53.2- 46.9---
1210 7:27 pmESE 2.9 8.9----30.17- 53.1- 46.8---
1210 7:26 pmESE 2.9 8.9----30.17- 53.2- 46.9---
1210 7:25 pm E 4.1 11.1----30.17- 53.4- 46.9---
1210 7:24 pm E 2.9 9.9----30.17- 53.4- 46.9---
1210 7:23 pm E 2.9 9.9----30.17- 53.4- 46.9---
1210 7:22 pm E 2.9 8.9----30.17- 53.4- 46.9---
1210 7:21 pm E 2.9 8.9----30.17- 53.4- 46.9---
1210 7:20 pm E 4.1 8.9----30.17- 53.6- 47.1---
1210 7:19 pmESE 1.9 8.0----30.17- 53.6- 47.1---
1210 7:18 pm E 2.9 8.9----30.17- 53.6- 47.1---
1210 7:17 pm E 2.9 8.0----30.16- 53.6- 47.3---
1210 7:16 pm E 1.9 6.0----30.16- 53.6- 47.3---
1210 7:15 pm E 1.9 6.0----30.16- 53.6- 47.3---
1210 7:14 pm E 1.9 6.0----30.16- 53.8- 47.3 33.55--
1210 7:13 pmENE 1.9 6.0----30.16- 53.8- 47.3---
1210 7:12 pmENE 2.9 8.0----30.16- 53.6- 47.5---
1210 7:11 pm E 1.9 5.1----30.16- 53.6- 47.5---
1210 7:10 pm- 0.0 2.9----30.16- 53.6- 47.5---
1210 7:09 pm E 1.0 4.1----30.16- 53.6- 47.7---
1210 7:08 pm- 0.0 1.0----30.16- 53.6- 47.7---
1210 7:07 pm- 0.0 0.0----30.16- 53.8- 47.7---
1210 7:06 pm- 0.0 0.0----30.16- 53.8- 47.7---
1210 7:05 pm- 0.0 2.9----30.16- 53.8- 47.8---
1210 7:04 pm E 1.9 5.1----30.16- 53.8- 47.8---
1210 7:03 pm E 1.9 4.1----30.16- 53.8- 47.8---
1210 7:02 pm E 1.0 4.1----30.16- 53.6- 47.8---
1210 7:01 pm E 1.9 4.1----30.16- 53.6- 47.8---
1210 7:00 pm E 1.0 4.1----30.16- 53.6- 48.0---
1210 6:59 pm E 1.0 4.1----30.16- 53.6- 47.8---
1210 6:58 pm- 0.0 2.9----30.16- 53.6- 47.8---
1210 6:57 pm E 1.9 5.1----30.16- 53.4- 47.8---
1210 6:56 pmESE 1.9 6.0----30.16- 53.4- 47.8---
1210 6:55 pm E 2.9 7.0----30.16- 53.2- 47.7---
1210 6:54 pmESE 1.9 6.0----30.16- 53.1- 47.8---
1210 6:53 pmESE 1.9 6.0----30.16- 53.1- 47.8---
1210 6:52 pm E 2.9 8.0----30.16- 53.1- 47.8---
1210 6:51 pm E 1.9 6.0----30.16- 53.1- 47.8---
1210 6:50 pmESE 1.9 6.0----30.16- 53.1- 47.7---
1210 6:49 pmESE 1.9 5.1----30.16- 53.1- 47.8---
1210 6:48 pmESE 1.9 6.0----30.16+0.02 52.9- 47.8---
1210 6:47 pm E 1.9 6.0----30.16- 52.9- 47.8---
1210 6:46 pm E 1.9 6.0----30.16- 52.9- 47.8---
1210 6:45 pm E 1.9 6.0----30.16- 52.9- 47.8---
1210 6:44 pm E 1.0 4.1----30.16- 53.1- 47.8---
1210 6:43 pmESE 1.0 4.1----30.16- 53.1- 48.0---
1210 6:42 pmESE 1.0 4.1----30.16- 53.2- 48.0---
1210 6:41 pmESE 1.9 5.1----30.16- 53.4- 48.0---
1210 6:40 pmESE 1.9 6.0----30.16- 53.4- 48.0---
1210 6:39 pmESE 1.9 5.1----30.16- 53.6- 48.2---
1210 6:38 pmESE 1.9 5.1----30.16- 53.8- 48.0---
1210 6:37 pmESE 2.9 7.0----30.16- 53.8- 48.2---
1210 6:36 pmESE 1.9 6.0----30.16- 53.6- 48.0---
1210 6:35 pmESE 1.9 6.0----30.16- 53.6- 48.2---
1210 6:34 pmESE 1.9 5.1----30.16- 53.8- 48.2---
1210 6:33 pmESE 1.0 4.1----30.16- 53.8- 48.2---
1210 6:32 pmESE 1.0 4.1----30.16- 53.8- 48.4---
1210 6:31 pmESE 1.9 4.1----30.16- 54.0- 48.4---
1210 6:30 pmESE 1.9 4.1----30.16- 54.0- 48.6---
1210 6:29 pmESE 1.9 7.0----30.16- 53.8- 48.6---
1210 6:28 pm E 1.9 7.0----30.16- 54.0- 48.7---
1210 6:27 pm E 1.9 5.1----30.16- 53.8- 48.7---
1210 6:26 pm E 1.9 6.0----30.16- 54.0- 48.7---
1210 6:25 pmESE 1.9 7.0----30.16- 53.8- 48.9---
1210 6:24 pmESE 1.9 6.0----30.16- 53.8- 48.7---
1210 6:23 pmESE 1.9 6.0----30.16- 53.8- 48.9---
1210 6:22 pmESE 1.9 5.1----30.16- 53.8- 48.9---
1210 6:21 pmESE 1.9 5.1----30.16- 54.0- 49.3---
1210 6:20 pmESE 1.0 4.1----30.16- 54.1- 49.3---
1210 6:19 pmESE 1.0 4.1----30.16- 54.1- 49.3---
1210 6:18 pmESE 1.0 4.1----30.16- 54.1- 49.3---
1210 6:17 pmESE 1.9 4.1----30.16- 54.1- 49.3---
1210 6:16 pm E 1.0 4.1----30.16- 54.1- 49.3---
1210 6:15 pm- 0.0 1.0----30.16- 54.3- 49.3---
1210 6:14 pm- 0.0 1.9----30.16- 54.3- 49.1 33.55--
1210 6:13 pm- 0.0 2.9----30.16- 54.1- 49.1---
1210 6:12 pm- 0.0 1.0----30.16- 54.3- 49.3---
1210 6:11 pm- 0.0 1.9----30.16- 54.1- 49.1---
1210 6:10 pm- 0.0 0.0----30.16- 54.1- 48.9---
1210 6:09 pm- 0.0 0.0----30.16- 54.0- 48.9---
1210 6:08 pm- 0.0 0.0----30.16- 54.0- 48.9---
1210 6:07 pm- 0.0 0.0----30.16- 54.1- 48.9---
1210 6:06 pm- 0.0 0.0----30.16- 54.1- 48.9---
1210 6:05 pm- 0.0 0.0----30.16- 54.1- 48.9---
1210 6:04 pm- 0.0 0.0----30.16- 54.1- 49.1---
1210 6:03 pm- 0.0 0.0----30.16- 54.1- 49.1---
1210 6:02 pm- 0.0 0.0----30.16- 54.1- 49.1---
1210 6:01 pm- 0.0 1.0----30.16- 54.3- 49.1---
1210 6:00 pm- 0.0 1.9----30.16- 54.1- 49.1---
1210 5:59 pm- 0.0 1.0----30.16- 54.3- 49.1---
1210 5:58 pm E 1.0 4.1----30.16- 54.3- 49.1---
1210 5:57 pm E 1.9 4.1----30.16- 54.3- 49.1---
1210 5:56 pm E 1.9 4.1----30.16- 54.3- 49.1---
1210 5:55 pm E 1.0 4.1----30.16- 54.3- 48.9---
1210 5:54 pm- 0.0 0.0----30.16- 54.3- 48.9---
1210 5:53 pm- 0.0 1.9----30.16- 54.5- 48.9---
1210 5:52 pm- 0.0 0.0----30.16- 54.5- 48.9---
1210 5:51 pm- 0.0 1.0----30.16- 54.5- 48.9---
1210 5:50 pm E 1.0 4.1----30.16- 54.5- 49.1---
1210 5:49 pm E 1.0 4.1----30.16- 54.5- 49.1---
1210 5:48 pm E 1.0 2.9----30.16+0.02 54.7- 49.1---
1210 5:47 pm- 0.0 1.9----30.16- 54.7- 49.1---
1210 5:46 pm- 0.0 1.9----30.16- 54.9- 49.1---
1210 5:45 pmESE 1.0 4.1----30.16- 54.9- 49.1---
1210 5:44 pmESE 1.9 5.1----30.16- 55.0- 49.1---
1210 5:43 pmESE 1.9 6.0----30.16- 55.2- 49.1---
1210 5:42 pmESE 1.9 5.1----30.16- 55.2- 49.3---
1210 5:41 pmESE 1.9 5.1----30.16- 55.4- 49.3---
1210 5:40 pmESE 1.9 6.0----30.16- 55.4- 49.5---
1210 5:39 pm E 1.0 5.1----30.16- 55.4- 49.3---
1210 5:38 pm- 0.0 2.9----30.15- 55.6- 49.5---
1210 5:37 pmESE 1.0 4.1----30.15- 55.8- 49.5---
1210 5:36 pm- 0.0 1.9----30.15- 55.9- 49.5---
1210 5:35 pmESE 1.0 4.1----30.15- 55.9- 49.5---
1210 5:34 pmESE 1.0 4.1----30.15- 55.9- 49.5---
1210 5:33 pmESE 1.0 4.1----30.15- 55.9- 49.5---
1210 5:32 pm- 0.0 2.9----30.15- 55.9- 49.5---
1210 5:31 pm- 0.0 0.0----30.15- 56.1- 49.5---
1210 5:30 pm- 0.0 0.0----30.15- 56.1- 49.3---
1210 5:29 pm- 0.0 0.0----30.15- 56.1- 49.5---
1210 5:28 pm- 0.0 0.0----30.16- 56.1- 49.5---
1210 5:27 pm- 0.0 1.0----30.15- 56.3- 49.8---
1210 5:26 pm- 0.0 0.0----30.15- 56.3- 49.8---
1210 5:25 pm- 0.0 1.0----30.15- 56.5- 49.8---
1210 5:24 pmWNW 1.0 4.1----30.15- 56.3- 49.8---
1210 5:23 pm W 1.9 4.1----30.15- 56.3- 49.6---
1210 5:22 pm W 1.9 6.0----30.15- 56.3- 49.6---
1210 5:21 pm W 2.9 7.0----30.15- 56.3- 49.6---
1210 5:20 pm W 2.9 8.0----30.15- 56.5- 50.0---
1210 5:19 pm W 2.9 8.0----30.15- 56.3- 49.8---
1210 5:18 pm W 2.9 8.0----30.15- 56.5- 50.0---
1210 5:17 pm W 2.9 8.0----30.15- 56.5- 50.0---
1210 5:16 pm W 2.9 8.9----30.15- 56.5- 49.8---
1210 5:15 pm W 4.1 8.9----30.15- 56.7- 50.2---
1210 5:14 pm W 4.1 8.9----30.15- 56.7- 50.2 33.53--
1210 5:13 pmWNW 2.9 8.0----30.15- 56.7- 50.0---
1210 5:12 pm W 4.1 8.9----30.15- 56.5- 49.8---
1210 5:11 pm W 4.1 9.9----30.15- 56.7- 49.8---
1210 5:10 pm W 4.1 11.1----30.15- 56.5- 49.5---
1210 5:09 pmWNW 4.1 8.9----30.15- 56.5- 49.5---
1210 5:08 pmWNW 4.1 9.9----30.15- 56.5- 49.8---
1210 5:07 pmWNW 4.1 11.1----30.15- 56.7- 50.0---
1210 5:06 pmWNW 4.1 11.1----30.15- 56.8- 50.2---
1210 5:05 pmWNW 2.9 8.9----30.15- 56.7- 49.8---
1210 5:04 pmWNW 4.1 9.9----30.15- 56.8- 50.0---
1210 5:03 pmWNW 4.1 9.9----30.15- 56.7- 49.8---
1210 5:02 pmWNW 4.1 9.9----30.15- 56.7- 49.8---
1210 5:01 pmWNW 4.1 11.1----30.15- 56.7- 49.6---
1210 5:00 pmWNW 5.1 11.1----30.15- 56.7- 49.8---
1210 4:59 pmWNW 4.1 11.1----30.15- 56.7- 49.5---
1210 4:58 pmWNW 5.1 11.1----30.15- 56.7- 49.6---
1210 4:57 pmWNW 4.1 11.1----30.15- 56.8- 49.6---
1210 4:56 pmWNW 4.1 11.1----30.15- 56.8- 49.8---
1210 4:55 pmWNW 4.1 9.9----30.15- 56.8- 49.8---
1210 4:54 pmWNW 4.1 9.9----30.15- 56.8- 49.6---
1210 4:53 pmWNW 4.1 12.0----30.15- 57.0- 50.0---
1210 4:52 pmWNW 5.1 14.0----30.15- 57.0- 49.8---
1210 4:51 pmWNW 5.1 15.9----30.15- 57.2- 50.0---
1210 4:50 pmWNW 6.0 17.1----30.15- 57.0- 49.8---
1210 4:49 pmWNW 7.0 17.1----30.15- 57.2- 50.0---
1210 4:48 pmWNW 7.0 17.1----30.15+0.00 57.4- 50.2---
1210 4:47 pmWNW 6.0 15.9----30.15- 57.4- 49.8---
1210 4:46 pmWNW 6.0 15.9----30.15- 57.4- 50.2---
1210 4:45 pmWNW 5.1 15.9----30.15- 57.4- 50.2---
1210 4:44 pmWNW 5.1 13.0----30.15- 57.4- 50.2---
1210 4:43 pmWNW 5.1 13.0----30.15- 57.6- 50.2---
1210 4:42 pmWNW 4.1 11.1----30.15- 57.4- 49.8---
1210 4:41 pm NW 4.1 11.1----30.15- 57.4- 49.8---
1210 4:40 pm NW 4.1 11.1----30.14- 57.4- 49.6---
1210 4:39 pm NW 4.1 9.9----30.14- 57.4- 49.8---
1210 4:38 pm NW 4.1 8.9----30.14- 57.4- 49.8---
1210 4:37 pm NW 2.9 8.0----30.14- 57.6- 50.2---
1210 4:36 pm NW 1.9 6.0----30.14- 57.6- 50.0---
1210 4:35 pm NW 1.9 5.1----30.14- 57.4- 49.6---
1210 4:34 pmWNW 1.9 5.1----30.14- 57.4- 49.6---
1210 4:33 pm NW 1.9 5.1----30.14- 57.6- 49.8---
1210 4:32 pm NW 1.9 5.1----30.14- 57.6- 50.0---
1210 4:31 pm NW 1.9 5.1----30.14- 57.6- 49.8---
1210 4:30 pm NW 2.9 6.0----30.14- 57.6- 49.8---
1210 4:29 pmWNW 2.9 7.0----30.14- 57.6- 49.6---
1210 4:28 pmWNW 2.9 8.0----30.14- 57.6- 49.8---
1210 4:27 pmWNW 2.9 8.0----30.14- 57.6- 49.6---
1210 4:26 pmWNW 4.1 8.9----30.14- 57.6- 49.6---
1210 4:25 pmWNW 4.1 8.9----30.14- 57.6- 49.6---
1210 4:24 pm NW 4.1 8.9----30.14- 57.6- 49.8---
1210 4:23 pm NW 2.9 8.0----30.14- 57.6- 49.8---
1210 4:22 pm NW 4.1 8.9----30.14- 57.6- 50.0---
1210 4:21 pm NW 2.9 8.0----30.14- 57.6- 49.8---
1210 4:20 pm NW 4.1 9.9----30.14- 57.4- 49.5---
1210 4:19 pm NW 5.1 11.1----30.14- 57.6- 49.8---
1210 4:18 pm NW 4.1 9.9----30.14- 57.6- 49.5---
1210 4:17 pm NW 5.1 12.0----30.14- 57.6- 49.8---
1210 4:16 pm NW 5.1 13.0----30.14- 57.6- 49.5---
1210 4:15 pm NW 5.1 13.0----30.14- 57.7- 49.8---
1210 4:14 pmWNW 5.1 12.0----30.14- 57.6- 49.5 33.53--
1210 4:13 pmWNW 5.1 14.0----30.14- 57.6- 49.5---
1210 4:12 pmWNW 6.0 14.0----30.14- 57.6- 49.1---
1210 4:11 pmWNW 6.0 15.0----30.14- 57.7- 49.6---
1210 4:10 pmWNW 5.1 13.0----30.14- 57.7- 49.6---
1210 4:09 pmWNW 4.1 11.1----30.14- 57.9- 50.0---
1210 4:08 pm NW 4.1 11.1----30.14- 57.9- 50.0---
1210 4:07 pm NW 2.9 8.0----30.14- 57.9- 49.8---
1210 4:06 pm NW 2.9 8.9----30.14- 57.7- 49.1---
1210 4:05 pmWNW 5.1 11.1----30.14- 57.7- 49.5---
1210 4:04 pmWNW 4.1 11.1----30.14- 57.7- 49.5---
1210 4:03 pmWNW 5.1 13.0----30.14- 57.9- 50.0---
1210 4:02 pmWNW 4.1 11.1----30.14- 57.9- 49.6---
1210 4:01 pmWNW 4.1 12.0----30.14- 57.9- 50.0---
1210 4:00 pmWNW 4.1 11.1----30.14- 57.9- 49.3---
1210 3:59 pmWNW 5.1 13.0----30.14- 58.1- 50.2---
1210 3:58 pmWNW 4.1 11.1----30.14- 58.1- 49.8---
1210 3:57 pmWNW 5.1 11.1----30.14- 58.1- 49.8---
1210 3:56 pmWNW 5.1 12.0----30.14- 58.1- 49.6---
1210 3:55 pmWNW 5.1 13.0----30.14- 58.3- 49.8---
1210 3:54 pmWNW 5.1 15.0----30.14- 58.5- 49.8---
1210 3:53 pmWNW 6.0 17.1----30.14- 58.6- 49.6---
1210 3:52 pmWNW 6.0 17.1----30.14- 59.0- 50.0---
1210 3:51 pmWNW 4.1 14.0----30.14- 59.2- 49.5---
1210 3:50 pm NW 2.9 11.1----30.14- 59.2- 48.6---
1210 3:49 pmNNW 2.9 8.0----30.14- 59.5- 48.4---
1210 3:48 pm NW 2.9 8.0----30.14-0.04 59.7- 47.7---
1210 3:47 pm N 2.9 8.0----30.14- 59.7- 47.5---
1210 3:46 pmNNE 1.9 8.9----30.14- 59.7- 47.7---
1210 3:45 pmNNE 2.9 9.9----30.14- 59.7- 47.7---
1210 3:44 pm NE 1.9 7.0----30.14- 59.5- 47.5---
1210 3:43 pmENE 2.9 8.9----30.13- 59.5- 47.5---
1210 3:42 pmNNE 2.9 8.9----30.13- 59.7- 47.7---
1210 3:41 pm NE 1.9 6.0----30.13- 59.5- 47.5---
1210 3:40 pm NE 4.1 9.9----30.13- 59.7- 47.5---
1210 3:39 pm NE 2.9 8.0----30.13- 59.9- 47.5---
1210 3:38 pmENE 1.9 8.0----30.13- 59.7- 47.1---
1210 3:37 pmNNE 1.0 4.1----30.13- 59.7- 47.1---
1210 3:36 pm NE 1.9 6.0----30.13- 59.5- 46.9---
1210 3:35 pmNNE 1.9 7.0----30.13- 59.5- 46.8---
1210 3:34 pm NE 4.1 13.0----30.13- 59.7- 47.1---
1210 3:33 pm NE 2.9 13.0----30.13- 59.7- 46.9---
1210 3:32 pm NE 1.0 5.1----30.13- 59.7- 46.8---
1210 3:31 pm NE 2.9 8.0----30.13- 59.7- 46.8---
1210 3:30 pmNNE 2.9 8.9----30.13- 59.9- 46.9---
1210 3:29 pmNNE 2.9 8.9----30.13- 59.9- 46.9---
1210 3:28 pmNNE 1.9 8.0----30.14- 59.9- 46.9---
1210 3:27 pm N 1.9 8.9----30.14- 59.9- 46.9---
1210 3:26 pm N 1.9 7.0----30.14- 59.7- 46.8---
1210 3:25 pmNNE 4.1 9.9----30.14- 59.5- 46.9---
1210 3:24 pmNNE 2.9 8.9----30.14- 59.5- 46.8---
1210 3:23 pmENE 1.0 4.1----30.14- 59.5- 46.8---
1210 3:22 pm NE 2.9 8.9----30.14- 59.9- 46.9---
1210 3:21 pmENE 1.9 6.0----30.14- 60.1- 47.3---
1210 3:20 pmENE 2.9 7.0----30.14- 59.9- 47.1---
1210 3:19 pmENE 4.1 12.0----30.14- 60.3- 47.3---
1210 3:18 pm NE 1.9 8.9----30.14- 60.3- 47.3---
1210 3:17 pmWNW 1.0 4.1----30.14- 60.1- 46.9---
1210 3:16 pm- 0.0 0.0----30.14- 60.1- 47.1---
1210 3:15 pm NE 1.0 4.1----30.14- 60.1- 46.9---
1210 3:14 pmNNE 1.9 6.0----30.14- 59.9- 47.5 33.57--
1210 3:13 pm NE 2.9 8.0----30.14- 59.5- 47.1---
1210 3:12 pmENE 2.9 8.9----30.14- 59.5- 46.9---
1210 3:11 pm NE 4.1 11.1----30.14- 59.7- 47.3---
1210 3:10 pm NE 5.1 11.1----30.14- 59.7- 46.9---
1210 3:09 pm NE 4.1 12.0----30.14- 59.7- 46.8---
1210 3:08 pm NE 5.1 12.0----30.14- 59.9- 46.8---
1210 3:07 pm NE 5.1 14.0----30.14- 60.1- 46.9---
1210 3:06 pmNNE 4.1 9.9----30.14- 59.9- 46.8---
1210 3:05 pmNNE 5.1 14.0----30.14- 60.1- 46.6---
1210 3:04 pmNNE 2.9 13.0----30.14- 59.9- 46.8---
1210 3:03 pmNNE 4.1 12.0----30.14- 59.9- 46.8---
1210 3:02 pmNNE 2.9 8.9----30.14- 59.7- 46.8---
1210 3:01 pm NE 4.1 9.9----30.14- 59.7- 46.4---
1210 3:00 pm NE 5.1 13.0----30.14- 59.9- 46.9---
1210 2:59 pmNNE 4.1 14.0----30.14- 59.7- 46.9---
1210 2:58 pm NE 2.9 8.9----30.14- 59.7- 46.9---
1210 2:57 pmENE 1.9 6.0----30.14- 59.7- 46.6---
1210 2:56 pm NE 2.9 8.9----30.14- 59.9- 46.8---
1210 2:55 pm NE 4.1 9.9----30.14- 59.9- 46.9---
1210 2:54 pmNNE 1.9 5.1----30.14- 59.7- 46.6---
1210 2:53 pmNNE 1.9 7.0----30.14- 59.5- 46.8---
1210 2:52 pmNNE 2.9 9.9----30.14- 59.5- 46.8---
1210 2:51 pm NE 5.1 15.9----30.14- 59.9- 46.8---
1210 2:50 pmNNE 5.1 15.0----30.14- 59.7- 46.8---
1210 2:49 pmNNE 4.1 14.0----30.14- 59.5- 46.9---
1210 2:48 pm NE 5.1 15.9----30.14-0.06 59.5- 46.8---
1210 2:47 pm NE 4.1 12.0----30.14- 59.7- 47.1---
1210 2:46 pm NE 2.9 8.0----30.14- 59.7- 47.1---
1210 2:45 pmENE 2.9 13.0----30.14- 59.7- 46.9---
1210 2:44 pm NE 2.9 12.0----30.14- 59.5- 46.8---
1210 2:43 pmENE 1.9 5.1----30.14- 59.5- 46.9---
1210 2:42 pm- 0.0 4.1----30.14- 59.4- 46.8---
1210 2:41 pm NE 1.9 6.0----30.14- 59.5- 46.8---
1210 2:40 pm NE 2.9 8.9----30.14- 59.4- 46.6---
1210 2:39 pmNNE 2.9 8.9----30.14- 59.4- 46.4---
1210 2:38 pm NE 2.9 8.0----30.14- 59.5- 46.8---
1210 2:37 pm NE 2.9 11.1----30.14- 59.5- 46.8---
1210 2:36 pm NE 1.9 5.1----30.14- 59.4- 46.6---
1210 2:35 pmNNE 2.9 8.0----30.14- 59.4- 46.4---
1210 2:34 pmNNE 2.9 8.9----30.14- 59.4- 46.8---
1210 2:33 pmNNE 4.1 12.0----30.14- 59.5- 47.1---
1210 2:32 pm NE 4.1 12.0----30.14- 60.1- 47.3---
1210 2:31 pm NE 2.9 9.9----30.14- 59.9- 47.1---
1210 2:30 pm NE 4.1 12.0----30.14- 59.7- 46.8---
1210 2:29 pmNNE 4.1 11.1----30.14- 59.7- 46.9---
1210 2:28 pmNNE 4.1 11.1----30.14- 59.4- 46.8---
1210 2:27 pm NE 1.9 7.0----30.14- 59.2- 46.6---
1210 2:26 pmNNE 2.9 8.0----30.14- 59.2- 46.9---
1210 2:25 pm NE 4.1 14.0----30.14- 59.2- 47.1---
1210 2:24 pmENE 1.9 6.0----30.14- 58.8- 46.8---
1210 2:23 pm NE 2.9 9.9----30.14- 59.0- 46.9---
1210 2:22 pmENE 4.1 13.0----30.14- 59.0- 46.6---
1210 2:21 pm NE 5.1 12.0----30.14- 59.0- 46.8---
1210 2:20 pm NE 5.1 15.0----30.14- 59.2- 46.6---
1210 2:19 pm NE 4.1 14.0----30.14- 59.4- 46.6---
1210 2:18 pmNNE 5.1 15.0----30.14- 59.2- 46.8---
1210 2:17 pmNNE 6.0 15.9----30.14- 59.0- 46.6---
1210 2:16 pm NE 5.1 13.0----30.14- 59.0- 46.6---
1210 2:15 pm NE 5.1 15.9----30.14- 59.2- 46.9---
1210 2:14 pm NE 4.1 13.0----30.14- 59.0- 46.9 33.67--
1210 2:13 pm NE 4.1 13.0----30.14- 58.8- 46.6---
1210 2:12 pm NE 5.1 13.0----30.14- 58.8- 46.4---
1210 2:11 pm NE 4.1 12.0----30.14- 59.0- 46.2---
1210 2:10 pmNNE 5.1 17.1----30.14- 59.0- 46.6---
1210 2:09 pm NE 5.1 17.1----30.14- 58.8- 46.2---
1210 2:08 pm NE 5.1 15.0----30.14- 59.0- 46.4---
1210 2:07 pm NE 5.1 15.0----30.14- 59.2- 46.4---
1210 2:06 pmNNE 5.1 15.0----30.14- 59.2- 46.6---
1210 2:05 pm NE 5.1 14.0----30.14- 59.0- 46.9---
1210 2:04 pmENE 4.1 12.0----30.14- 58.6- 46.6---
1210 2:03 pmENE 5.1 13.0----30.14- 58.8- 46.4---
1210 2:02 pmENE 5.1 15.9----30.14- 58.8- 46.6---
1210 2:01 pm NE 5.1 15.9----30.14- 58.6- 46.0---
1210 2:00 pm NE 5.1 15.9----30.14- 58.6- 45.9---
1210 1:59 pm NE 5.1 15.0----30.14- 58.8- 46.6---
1210 1:58 pm NE 5.1 15.9----30.14- 58.6- 46.6---
1210 1:57 pmENE 5.1 15.0----30.14- 58.6- 46.4---
1210 1:56 pmENE 4.1 14.0----30.14- 58.5- 46.0---
1210 1:55 pmENE 5.1 15.0----30.14- 58.8- 46.6---
1210 1:54 pmENE 4.1 9.9----30.14- 58.6- 46.4---
1210 1:53 pmENE 4.1 12.0----30.14- 58.5- 46.0---
1210 1:52 pmENE 5.1 13.0----30.14- 58.3- 45.7---
1210 1:51 pm E 6.0 17.1----30.14- 58.3- 45.7---
1210 1:50 pmENE 6.0 19.0----30.14- 58.6- 46.2---
1210 1:49 pmENE 4.1 13.0----30.14- 58.5- 46.0---
1210 1:48 pmENE 4.1 12.0----30.14-0.10 58.5- 46.2---
1210 1:47 pmENE 4.1 13.0----30.14- 58.5- 46.4---
1210 1:46 pmENE 4.1 11.1----30.14- 58.1- 45.7---
1210 1:45 pmENE 5.1 15.9----30.14- 58.8- 46.6---
1210 1:44 pmENE 5.1 15.9----30.14- 58.6- 46.4---
1210 1:43 pm NE 5.1 15.9----30.14- 58.6- 46.2---
1210 1:42 pm NE 4.1 13.0----30.14- 58.6- 46.9---
1210 1:41 pm NE 4.1 12.0----30.15- 58.3- 46.0---
1210 1:40 pm E 5.1 15.0----30.15- 58.1- 45.9---
1210 1:39 pmENE 5.1 15.0----30.15- 58.3- 46.4---
1210 1:38 pmENE 4.1 12.0----30.15- 57.7- 46.0---
1210 1:37 pm E 4.1 15.9----30.15- 57.9- 46.2---
1210 1:36 pmENE 4.1 12.0----30.15- 57.7- 46.2---
1210 1:35 pm NE 1.9 8.0----30.15- 57.7- 46.2---
1210 1:34 pm NE 2.9 9.9----30.15- 57.7- 46.4---
1210 1:33 pmNNE 1.9 7.0----30.15- 57.6- 46.0---
1210 1:32 pmENE 2.9 8.0----30.15- 57.9- 46.4---
1210 1:31 pm NE 5.1 13.0----30.15- 57.9- 46.2---
1210 1:30 pmENE 2.9 11.1----30.16- 57.7- 46.4---
1210 1:29 pm NE 1.9 7.0----30.16- 57.4- 45.9---
1210 1:28 pmENE 2.9 11.1----30.16- 57.7- 46.2---
1210 1:27 pm NE 4.1 13.0----30.16- 57.4- 46.2---
1210 1:26 pm NE 2.9 11.1----30.16- 57.4- 46.2---
1210 1:25 pm NE 4.1 12.0----30.16- 57.4- 46.0---
1210 1:24 pmENE 4.1 12.0----30.16- 57.4- 46.2---
1210 1:23 pmENE 2.9 9.9----30.16- 57.4- 46.0---
1210 1:22 pmENE 2.9 12.0----30.16- 57.7- 46.8---
1210 1:21 pm NE 2.9 11.1----30.16- 57.6- 46.0---
1210 1:20 pm NE 4.1 11.1----30.16- 57.7- 46.4---
1210 1:19 pm NE 4.1 13.0----30.16- 57.6- 46.4---
1210 1:18 pmENE 2.9 11.1----30.16- 57.2- 45.9---
1210 1:17 pm E 4.1 12.0----30.16- 57.2- 45.7---
1210 1:16 pm NE 4.1 13.0----30.16- 57.2- 45.7---
1210 1:15 pmNNE 4.1 14.0----30.16- 57.0- 45.3---
1210 1:14 pmNNE 5.1 12.0----30.16- 57.0- 45.5 33.63--
1210 1:13 pmNNE 6.0 17.1----30.16- 57.0- 45.3---
1210 1:12 pmNNE 5.1 14.0----30.16- 57.2- 45.3---
1210 1:11 pmNNE 5.1 17.1----30.16- 57.2- 45.0---
1210 1:10 pmNNE 5.1 15.9----30.16- 57.4- 45.3---
1210 1:09 pmNNE 5.1 14.0----30.16- 57.2- 45.3---
1210 1:08 pmNNE 6.0 17.1----30.16- 56.8- 44.8---
1210 1:07 pmNNE 5.1 17.1----30.16- 56.8- 45.1---
1210 1:06 pm NE 4.1 14.0----30.16- 56.7- 45.1---
1210 1:05 pmENE 4.1 13.0----30.16- 56.5- 44.6---
1210 1:04 pmENE 6.0 15.9----30.16- 56.7- 45.0---
1210 1:03 pmENE 6.0 18.1----30.16- 56.7- 45.0---
1210 1:02 pmENE 5.1 17.1----30.16- 56.8- 45.0---
1210 1:01 pm NE 6.0 21.0----30.16- 57.0- 45.1---
1210 1:00 pm NE 5.1 18.1----30.16- 57.2- 45.3---
121012:59 pm NE 5.1 15.9----30.16- 56.7- 45.1---
121012:58 pm NE 6.0 18.1----30.16- 56.7- 45.1---
121012:57 pm NE 6.0 15.0----30.16- 56.7- 45.5---
121012:56 pm NE 6.0 17.1----30.17- 56.5- 45.0---
121012:55 pmENE 6.0 17.1----30.17- 56.5- 45.1---
121012:54 pmENE 5.1 15.0----30.17- 56.5- 45.1---
121012:53 pmENE 5.1 15.9----30.17- 56.5- 45.3---
121012:52 pmENE 5.1 13.0----30.17- 56.7- 45.3---
121012:51 pmENE 4.1 12.0----30.17- 56.5- 45.0---
121012:50 pmENE 4.1 13.0----30.17- 56.5- 45.3---
121012:49 pm NE 6.0 15.0----30.17- 56.7- 45.0---
121012:48 pm NE 6.0 17.1----30.17-0.08 57.0- 45.5---
121012:47 pmENE 4.1 11.1----30.17- 57.0- 45.3---
121012:46 pm NE 4.1 12.0----30.17- 56.7- 44.6---
121012:45 pm NE 6.0 17.1----30.17- 57.2- 45.0---
121012:44 pmNNE 4.1 15.0----30.18- 57.0- 45.0---
121012:43 pm NE 5.1 15.0----30.18- 56.8- 45.1---
121012:42 pm NE 5.1 17.1----30.18- 56.3- 44.2---
121012:41 pm NE 7.0 19.0----30.18- 57.4- 44.8---
121012:40 pm NE 6.0 17.1----30.18- 57.0- 44.4---
121012:39 pm N 5.1 15.9----30.18- 56.8- 44.2---
121012:38 pm N 4.1 14.0----30.18- 56.7- 44.2---
121012:37 pmNNE 4.1 15.0----30.18- 56.8- 44.2---
121012:36 pmENE 4.1 15.0----30.18- 57.0- 44.4---
121012:35 pm NE 2.9 12.0----30.18- 57.2- 44.4---
121012:34 pm NE 4.1 12.0----30.18- 57.0- 44.2---
121012:33 pm N 2.9 8.9----30.18- 57.0- 44.6---
121012:32 pm NE 2.9 12.0----30.18- 57.2- 45.0---
121012:31 pm NE 4.1 9.9----30.18- 57.2- 44.6---
121012:30 pmNNE 2.9 13.0----30.18- 56.7- 44.2---
121012:29 pm NE 5.1 14.0----30.18- 56.8- 44.2---
121012:28 pm NE 4.1 14.0----30.17- 57.2- 45.0---
121012:27 pm NE 4.1 18.1----30.17- 56.8- 45.0---
121012:26 pmESE 5.1 15.9----30.17- 56.5- 44.4---
121012:25 pmESE 6.0 20.0----30.17- 56.8- 45.1---
121012:24 pm E 6.0 22.0----30.17- 56.7- 45.1---
121012:23 pmENE 5.1 17.1----30.17- 56.8- 45.5---
121012:22 pm E 2.9 11.1----30.18- 56.7- 45.5---
121012:21 pm E 4.1 12.0----30.18- 56.5- 45.1---
121012:20 pmENE 5.1 15.0----30.18- 56.3- 45.7---
121012:19 pmENE 4.1 14.0----30.18- 55.9- 45.0---
121012:18 pmENE 5.1 17.1----30.18- 56.3- 45.5---
121012:17 pm E 5.1 12.0----30.18- 55.8- 44.6---
121012:16 pm E 7.0 22.0----30.18- 56.5- 45.9---
121012:15 pm E 5.1 18.1----30.19- 56.5- 45.5---
121012:14 pm E 5.1 15.9----30.19- 56.7- 45.7 33.58--
121012:13 pm E 5.1 15.0----30.19- 56.5- 45.9---
121012:12 pm E 5.1 15.0----30.19- 56.3- 45.7---
121012:11 pmENE 5.1 15.0----30.19- 56.1- 45.5---
121012:10 pm E 6.0 21.0----30.19- 56.1- 45.5---
121012:09 pm E 6.0 17.1----30.19- 56.1- 45.5---
121012:08 pm E 5.1 15.9----30.19- 56.1- 45.9---
121012:07 pm E 5.1 15.0----30.19- 55.9- 45.9---
121012:06 pmENE 6.0 20.0----30.19- 55.8- 45.9---
121012:05 pm NE 4.1 14.0----30.19- 55.4- 46.2---
121012:04 pmENE 4.1 14.0----30.19- 55.0- 45.3---
121012:03 pmENE 6.0 21.0----30.19- 55.2- 45.9---
121012:02 pmENE 6.0 19.0----30.19- 55.0- 45.5---
121012:01 pm NE 8.0 22.9----30.19- 54.9- 45.7---
121012:00 pm NE 6.0 20.0----30.19- 54.5- 45.5---
121011:59 am NE 6.0 21.0----30.20- 54.3- 45.3---
121011:58 am NE 6.0 15.9----30.20- 54.5- 46.0---
121011:57 amENE 5.1 15.0----30.20- 54.1- 45.1---
121011:56 amENE 7.0 22.9----30.20- 54.5- 46.0---
121011:55 amENE 7.0 20.0----30.20- 54.3- 45.5---
121011:54 am NE 6.0 20.0----30.20- 54.3- 46.0---
121011:53 amENE 6.0 20.0----30.20- 54.1- 45.5---
121011:52 amENE 7.0 22.0----30.20- 54.5- 46.6---
121011:51 am NE 4.1 15.0----30.20- 53.8- 45.5---
121011:50 amENE 6.0 19.0----30.20- 54.1- 45.9---
121011:49 amENE 5.1 17.1----30.20- 54.1- 45.7---
121011:48 am E 6.0 18.1----30.20-0.03 53.8- 45.3---
121011:47 amENE 7.0 20.0----30.20- 54.3- 45.5---
121011:46 amENE 6.0 21.0----30.20- 54.9- 46.4---
121011:45 am E 2.9 12.0----30.20- 54.7- 46.6---
121011:44 am E 2.9 13.0----30.21- 54.0- 45.7---
121011:43 amENE 5.1 17.1----30.21- 54.1- 45.7---
121011:42 am E 4.1 14.0----30.21- 54.0- 45.9---
121011:41 am E 4.1 13.0----30.21- 53.4- 45.3---
121011:40 amESE 5.1 15.0----30.21- 53.4- 45.3---
121011:39 am E 7.0 21.0----30.21- 53.6- 45.3---
121011:38 am E 8.0 26.0----30.21- 53.6- 45.1---
121011:37 am E 8.9 25.1----30.21- 53.6- 45.5---
121011:36 am E 8.0 21.0----30.21- 53.6- 45.3---
121011:35 am E 6.0 17.1----30.21- 53.8- 45.5---
121011:34 am E 6.0 19.0----30.21- 53.8- 45.5---
121011:33 am E 5.1 15.0----30.21- 53.6- 45.5---
121011:32 am E 7.0 22.0----30.21- 53.4- 45.3---
121011:31 am E 8.0 24.1----30.21- 53.6- 45.7---
121011:30 am E 6.0 19.0----30.21- 53.8- 45.9---
121011:29 am E 6.0 18.1----30.21- 53.6- 45.7---
121011:28 amESE 6.0 17.1----30.22- 53.4- 45.7---
121011:27 am E 5.1 15.9----30.22- 53.4- 45.3---
121011:26 am E 6.0 22.0----30.22- 53.4- 45.1---
121011:25 am E 7.0 20.0----30.22- 53.4- 45.3---
121011:24 am E 6.0 15.9----30.22- 53.4- 45.3---
121011:23 am E 7.0 21.0----30.22- 53.4- 45.1---
121011:22 am E 7.0 25.1----30.22- 53.6- 45.7---
121011:21 am E 5.1 15.9----30.22- 53.4- 45.1---
121011:20 am E 7.0 19.0----30.22- 54.0- 45.3---
121011:19 am E 6.0 18.1----30.22- 53.8- 45.5---
121011:18 am E 7.0 20.0----30.22- 54.1- 45.5---
121011:17 am E 6.0 17.1----30.22- 54.5- 45.9---
121011:16 am E 5.1 15.9----30.22- 54.3- 45.7---
121011:15 am E 5.1 15.9----30.22- 54.3- 45.7---
121011:14 amENE 6.0 20.0----30.22- 54.3- 45.5 33.59--
121011:13 am E 5.1 15.0----30.22- 54.1- 45.3---
121011:12 am E 5.1 15.0----30.23- 54.0- 45.0---
121011:11 am E 6.0 20.0----30.23- 54.1- 45.3---
121011:10 am E 7.0 21.0----30.23- 54.1- 45.1---
121011:09 am E 6.0 19.0----30.23- 54.7- 45.9---
121011:08 am E 2.9 8.9----30.23- 54.5- 45.7---
121011:07 amESE 4.1 9.9----30.23- 54.5- 45.9---
121011:06 amESE 2.9 9.9----30.23- 54.3- 45.5---
121011:05 amENE 4.1 12.0----30.23- 54.1- 45.5---
121011:04 amENE 4.1 11.1----30.23- 54.0- 45.3---
121011:03 amENE 5.1 13.0----30.23- 54.3- 45.5---
121011:02 am E 4.1 13.0----30.23- 54.1- 45.7---
121011:01 amESE 4.1 11.1----30.23- 54.0- 45.5---
121011:00 am E 2.9 8.9----30.23- 54.0- 45.5---
121010:59 am E 2.9 8.0----30.24- 54.0- 45.5---
121010:58 am E 2.9 8.0----30.24- 54.0- 45.5---
121010:57 amESE 4.1 9.9----30.24- 54.0- 45.3---
121010:56 am E 2.9 8.0----30.24- 54.0- 45.7---
121010:55 am E 1.9 7.0----30.24- 54.0- 45.5---
121010:54 amESE 1.0 4.1----30.24- 54.0- 45.9---
121010:53 am E 1.0 5.1----30.24- 53.6- 45.7---
121010:52 am- 0.0 4.1----30.24- 53.4- 45.3---
121010:51 amESE 1.9 5.1----30.24- 53.4- 45.3---
121010:50 am E 2.9 8.0----30.24- 53.4- 45.5---
121010:49 amENE 1.9 8.0----30.24- 53.4- 45.1---
121010:48 amENE 2.9 7.0----30.24+0.02 53.6- 45.5---
121010:47 am NE 1.9 8.0----30.24- 53.6- 45.5---
121010:46 am- 0.0 0.0----30.24- 53.8- 45.7---
121010:45 amESE 1.0 4.1----30.24- 53.4- 45.3---
121010:44 am E 1.9 6.0----30.24- 53.2- 45.3---
121010:43 am E 1.9 7.0----30.24- 53.1- 45.1---
121010:42 amENE 1.9 6.0----30.24- 52.9- 45.0---
121010:41 amENE 2.9 8.9----30.24- 52.9- 45.1---
121010:40 amENE 4.1 8.9----30.24- 53.1- 45.3---
121010:39 am E 2.9 8.0----30.24- 53.1- 45.3---
121010:38 am E 4.1 11.1----30.24- 52.9- 45.1---
121010:37 am E 4.1 12.0----30.24- 52.9- 45.1---
121010:36 am E 5.1 13.0----30.24- 52.7- 45.0---
121010:35 am E 6.0 15.9----30.24- 52.7- 44.8---
121010:34 am E 6.0 17.1----30.24- 52.7- 45.0---
121010:33 am E 7.0 18.1----30.24- 52.7- 45.0---
121010:32 am E 6.0 17.1----30.24- 52.7- 45.3---
121010:31 amESE 5.1 17.1----30.24- 52.7- 45.1---
121010:30 amESE 5.1 17.1----30.24- 52.5- 45.3---
121010:29 amESE 5.1 17.1----30.24- 52.5- 45.1---
121010:28 am E 5.1 15.0----30.24- 52.3- 45.1---
121010:27 am E 6.0 15.9----30.24- 52.2- 45.0---
121010:26 am E 6.0 18.1----30.24- 52.5- 45.3---
121010:25 am E 5.1 14.0----30.24- 52.2- 45.3---
121010:24 am E 4.1 12.0----30.24- 52.0- 45.0---
121010:23 amESE 5.1 17.1----30.24- 52.2- 45.3---
121010:22 amESE 4.1 13.0----30.24- 51.8- 45.1---
121010:21 am E 5.1 14.0----30.24- 51.8- 44.8---
121010:20 amESE 6.0 17.1----30.24- 52.0- 45.3---
121010:19 am E 4.1 12.0----30.25- 51.8- 44.8---
121010:18 am E 5.1 15.0----30.25- 52.0- 45.1---
121010:17 am E 5.1 15.0----30.25- 51.8- 45.0---
121010:16 am E 5.1 19.0----30.25- 51.8- 45.0---
121010:15 am E 6.0 17.1----30.25- 51.8- 44.8---
121010:14 am E 6.0 17.1----30.25- 52.0- 45.3 33.59--
121010:13 am E 5.1 15.0----30.25- 52.0- 45.0---
121010:12 am E 5.1 13.0----30.25- 51.8- 45.3---
121010:11 am E 5.1 15.0----30.25- 51.4- 44.6---
121010:10 am E 6.0 19.0----30.25- 51.8- 45.0---
121010:09 am E 5.1 15.9----30.25- 51.6- 44.8---
121010:08 am E 6.0 18.1----30.25- 51.6- 45.0---
121010:07 am E 5.1 17.1----30.25- 51.6- 45.0---
121010:06 am E 5.1 15.9----30.25- 52.0- 45.1---
121010:05 am E 5.1 17.1----30.25- 52.2- 45.5---
121010:04 amESE 4.1 13.0----30.25- 52.2- 45.5---
121010:03 am E 4.1 14.0----30.25- 52.0- 45.3---
121010:02 am E 5.1 18.1----30.25- 52.0- 45.5---
121010:01 am E 5.1 14.0----30.25- 51.8- 45.3---
121010:00 am E 5.1 13.0----30.25- 51.4- 45.1---
1210 9:59 am E 6.0 18.1----30.25- 51.3- 45.0---
1210 9:58 am E 6.0 17.1----30.25- 51.3- 45.1---
1210 9:57 am E 6.0 17.1----30.25- 51.1- 44.8---
1210 9:56 am E 6.0 19.0----30.25- 51.1- 45.0---
1210 9:55 amENE 6.0 18.1----30.25- 50.5- 44.4---
1210 9:54 amENE 7.0 21.0----30.25- 50.7- 44.8---
1210 9:53 am E 7.0 20.0----30.25- 50.9- 45.0---
1210 9:52 amENE 5.1 15.9----30.25- 50.9- 45.0---
1210 9:51 am E 6.0 15.9----30.25- 50.7- 44.8---
1210 9:50 am E 6.0 18.1----30.25- 50.7- 44.8---
1210 9:49 am E 6.0 19.0----30.25- 50.7- 44.8---
1210 9:48 am E 6.0 18.1----30.25+0.04 50.5- 45.0---
1210 9:47 am E 6.0 15.0----30.25- 50.7- 44.8---
1210 9:46 am E 6.0 18.1----30.25- 50.7- 44.8---
1210 9:45 am E 5.1 15.0----30.25- 50.5- 44.8---
1210 9:44 am E 5.1 14.0----30.25- 50.5- 45.0---
1210 9:43 am E 4.1 12.0----30.25- 50.5- 44.8---
1210 9:42 am E 4.1 11.1----30.25- 50.4- 44.8---
1210 9:41 am E 4.1 12.0----30.25- 50.5- 45.0---
1210 9:40 amESE 4.1 11.1----30.25- 50.5- 45.0---
1210 9:39 am E 4.1 11.1----30.25- 50.4- 44.8---
1210 9:38 am E 2.9 9.9----30.25- 50.4- 44.8---
1210 9:37 am E 4.1 12.0----30.25- 50.4- 45.0---
1210 9:36 am E 4.1 9.9----30.25- 50.2- 44.6---
1210 9:35 am E 4.1 11.1----30.25- 50.0- 44.8---
1210 9:34 am E 2.9 9.9----30.25- 50.0- 44.4---
1210 9:33 am E 5.1 12.0----30.25- 50.0- 44.8---
1210 9:32 am E 4.1 11.1----30.25- 50.0- 44.6---
1210 9:31 am E 4.1 11.1----30.25- 50.0- 44.6---
1210 9:30 amESE 4.1 12.0----30.25- 49.8- 44.6---
1210 9:29 am E 4.1 13.0----30.25- 50.0- 44.6---
1210 9:28 am E 4.1 13.0----30.25- 50.0- 44.6---
1210 9:27 am E 5.1 15.0----30.25- 49.8- 44.6---
1210 9:26 am E 2.9 11.1----30.25- 49.8- 44.4---
1210 9:25 amESE 4.1 9.9----30.25- 49.8- 44.6---
1210 9:24 amESE 4.1 12.0----30.25- 50.0- 44.8---
1210 9:23 am E 2.9 8.9----30.25- 50.0- 44.6---
1210 9:22 am E 4.1 13.0----30.25- 50.0- 44.6---
1210 9:21 am E 4.1 12.0----30.24- 50.0- 44.8---
1210 9:20 am E 4.1 14.0----30.24- 50.0- 45.0---
1210 9:19 am E 2.9 11.1----30.24- 50.0- 45.0---
1210 9:18 am E 2.9 11.1----30.24- 50.0- 44.8---
1210 9:17 am E 4.1 11.1----30.24- 49.8- 44.8---
1210 9:16 am E 4.1 9.9----30.24- 49.8- 44.6---
1210 9:15 am E 5.1 13.0----30.24- 50.0- 45.0---
1210 9:14 am E 4.1 11.1----30.24- 49.8- 44.6 33.59--
1210 9:13 am E 5.1 14.0----30.24- 50.0- 45.0---
1210 9:12 am E 4.1 12.0----30.24- 49.8- 44.8---
1210 9:11 amENE 4.1 11.1----30.24- 50.0- 45.0---
1210 9:10 am E 2.9 8.0----30.24- 49.8- 45.0---
1210 9:09 amENE 2.9 8.9----30.24- 49.6- 44.6---
1210 9:08 am E 4.1 11.1----30.24- 49.6- 44.6---
1210 9:07 am E 4.1 12.0----30.24- 49.5- 44.6---
1210 9:06 am E 5.1 12.0----30.24- 49.5- 44.6---
1210 9:05 am E 6.0 15.9----30.24- 49.6- 44.6---
1210 9:04 am E 5.1 13.0----30.24- 49.6- 44.8---
1210 9:03 am E 5.1 14.0----30.24- 49.6- 44.8---
1210 9:02 amENE 4.1 12.0----30.24- 49.6- 45.0---
1210 9:01 amENE 4.1 13.0----30.24- 49.6- 45.0---
1210 9:00 amENE 4.1 11.1----30.24- 49.5- 44.6---
1210 8:59 amENE 5.1 15.9----30.24- 49.5- 44.6---
1210 8:58 am E 5.1 17.1----30.24- 49.5- 44.8---
1210 8:57 amENE 4.1 13.0----30.24- 49.5- 44.6---
1210 8:56 am E 5.1 15.0----30.24- 49.5- 44.6---
1210 8:55 am E 6.0 17.1----30.24- 49.5- 44.6---
1210 8:54 am E 5.1 15.0----30.24- 49.5- 44.8---
1210 8:53 am E 4.1 11.1----30.24- 49.5- 44.8---
1210 8:52 am E 5.1 14.0----30.24- 49.5- 44.8---
1210 8:51 am E 5.1 15.0----30.24- 49.5- 44.8---
1210 8:50 am E 5.1 14.0----30.24- 49.3- 44.6---
1210 8:49 amENE 5.1 20.0----30.24- 49.3- 44.6---
1210 8:48 amENE 6.0 19.0----30.24+0.02 49.3- 44.8---
1210 8:47 am E 5.1 15.9----30.24- 49.3- 44.6---
1210 8:46 am E 6.0 15.9----30.24- 49.1- 44.2---
1210 8:45 am E 6.0 17.1----30.24- 49.1- 44.2---
1210 8:44 am E 7.0 18.1----30.23- 49.1- 44.4---
1210 8:43 am E 7.0 17.1----30.23- 49.1- 44.4---
1210 8:42 am E 7.0 20.0----30.23- 49.1- 44.4---
1210 8:41 amENE 5.1 15.0----30.23- 49.1- 44.4---
1210 8:40 am E 5.1 14.0----30.23- 49.1- 44.4---
1210 8:39 am E 5.1 15.0----30.23- 49.1- 44.4---
1210 8:38 am E 4.1 12.0----30.23- 49.1- 44.4---
1210 8:37 am E 5.1 13.0----30.23- 49.1- 44.6---
1210 8:36 am E 4.1 12.0----30.23- 49.1- 44.4---
1210 8:35 am E 4.1 11.1----30.23- 48.9- 44.4---
1210 8:34 am E 4.1 12.0----30.23- 48.9- 44.2---
1210 8:33 am E 5.1 15.0----30.23- 48.7- 44.2---
1210 8:32 am E 5.1 13.0----30.23- 48.7- 44.2---
1210 8:31 am E 5.1 15.0----30.23- 48.6- 44.2---
1210 8:30 am E 5.1 12.0----30.23- 48.6- 44.2---
1210 8:29 am E 4.1 11.1----30.23- 48.4- 44.2---
1210 8:28 am E 4.1 12.0----30.23- 48.2- 44.1---
1210 8:27 amENE 4.1 12.0----30.23- 48.0- 43.9---
1210 8:26 am E 4.1 12.0----30.23- 47.7- 43.7---
1210 8:25 am E 2.9 11.1----30.23- 47.7- 43.7---
1210 8:24 am E 2.9 8.0----30.23- 47.5- 43.5---
1210 8:23 am E 2.9 9.9----30.23- 47.3- 43.5---
1210 8:22 amESE 4.1 11.1----30.23- 47.3- 43.3---
1210 8:21 amESE 4.1 9.9----30.23- 47.3- 43.5---
1210 8:20 amESE 2.9 9.9----30.23- 47.3- 43.3---
1210 8:19 amESE 4.1 9.9----30.23- 47.3- 43.5---
1210 8:18 amESE 4.1 11.1----30.23- 47.5- 43.5---
1210 8:17 amESE 2.9 8.9----30.23- 47.5- 43.5---
1210 8:16 amESE 4.1 11.1----30.23- 47.5- 43.5---
1210 8:15 am E 4.1 9.9----30.23- 47.7- 43.7---
1210 8:14 amESE 4.1 9.9----30.23- 47.7- 43.5 33.59--
1210 8:13 amESE 4.1 12.0----30.23- 47.8- 43.7---
1210 8:12 amESE 4.1 15.0----30.23- 47.8- 43.9---
1210 8:11 amESE 4.1 11.1----30.23- 48.0- 43.9---
1210 8:10 am E 5.1 13.0----30.23- 47.8- 43.9---
1210 8:09 am E 5.1 15.0----30.23- 47.8- 43.9---
1210 8:08 am E 6.0 15.9----30.23- 47.8- 43.9---
1210 8:07 am E 5.1 15.0----30.23- 47.8- 43.7---
1210 8:06 am E 5.1 15.9----30.23- 47.8- 43.9---
1210 8:05 am E 6.0 19.0----30.23- 47.8- 43.9---
1210 8:04 am E 5.1 15.0----30.23- 47.7- 43.7---
1210 8:03 am E 5.1 15.0----30.23- 47.7- 43.7---
1210 8:02 am E 5.1 14.0----30.23- 47.7- 43.9---
1210 8:01 am E 5.1 15.0----30.23- 47.7- 43.7---
1210 8:00 am E 6.0 19.0----30.23- 47.7- 43.7---
1210 7:59 am E 6.0 18.1----30.22- 47.7- 43.9---
1210 7:58 am E 6.0 18.1----30.23- 47.5- 43.7---
1210 7:57 am E 6.0 15.9----30.22- 47.7- 43.9---
1210 7:56 am E 6.0 17.1----30.22- 47.7- 43.7---
1210 7:55 am E 5.1 15.0----30.22- 47.5- 43.7---
1210 7:54 am E 6.0 15.0----30.22- 47.5- 43.7---
1210 7:53 am E 5.1 14.0----30.22- 47.5- 43.7---
1210 7:52 am E 6.0 17.1----30.22- 47.7- 43.9---
1210 7:51 am E 5.1 12.0----30.22- 47.7- 43.7---
1210 7:50 am E 4.1 13.0----30.22- 47.7- 43.9---
1210 7:49 am E 4.1 12.0----30.22- 47.5- 43.7---
1210 7:48 am E 4.1 12.0----30.22+0.02 47.5- 43.5---
1210 7:47 am E 6.0 17.1----30.22- 47.5- 43.7---
1210 7:46 am E 5.1 17.1----30.22- 47.5- 43.7---
1210 7:45 am E 6.0 17.1----30.22- 47.5- 43.7---
1210 7:44 am E 5.1 14.0----30.22- 47.5- 43.7---
1210 7:43 amENE 5.1 15.0----30.22- 47.5- 43.7---
1210 7:42 am E 5.1 14.0----30.22- 47.5- 43.7---
1210 7:41 amENE 4.1 14.0----30.22- 47.5- 43.9---
1210 7:40 amENE 4.1 14.0----30.22- 47.5- 43.7---
1210 7:39 am E 4.1 11.1----30.22- 47.5- 43.7---
1210 7:38 am E 5.1 13.0----30.22- 47.5- 43.9---
1210 7:37 am E 4.1 13.0----30.22- 47.5- 43.9---
1210 7:36 am E 5.1 17.1----30.22- 47.5- 43.7---
1210 7:35 am E 4.1 15.0----30.22- 47.5- 43.7---
1210 7:34 am E 5.1 15.0----30.22- 47.5- 43.9---
1210 7:33 am E 5.1 13.0----30.22- 47.5- 43.7---
1210 7:32 amENE 4.1 14.0----30.22- 47.7- 43.9---
1210 7:31 am E 5.1 17.1----30.22- 47.7- 43.9---
1210 7:30 am E 5.1 15.0----30.22- 47.5- 43.7---
1210 7:29 amENE 6.0 17.1----30.22- 47.5- 43.7---
1210 7:28 am E 5.1 13.0----30.22- 47.5- 43.7---
1210 7:27 am E 5.1 17.1----30.22- 47.3- 43.7---
1210 7:26 am E 6.0 19.0----30.22- 47.3- 43.7---
1210 7:25 am E 4.1 12.0----30.22- 47.3- 43.5---
1210 7:24 am E 4.1 12.0----30.22- 47.3- 43.5---
1210 7:23 am E 4.1 11.1----30.22- 47.3- 43.5---
1210 7:22 am E 4.1 11.1----30.22- 47.3- 43.7---
1210 7:21 am E 2.9 8.9----30.22- 47.5- 43.7---
1210 7:20 am E 4.1 11.1----30.22- 47.5- 43.7---
1210 7:19 am E 5.1 13.0----30.22- 47.5- 43.7---
1210 7:18 am E 6.0 15.0----30.22- 47.3- 43.5---
1210 7:17 am E 4.1 13.0----30.22- 47.3- 43.5---
1210 7:16 am E 4.1 12.0----30.22- 47.5- 43.7---
1210 7:15 am E 5.1 13.0----30.22- 47.5- 43.5---
1210 7:14 am E 5.1 12.0----30.22- 47.5- 43.7 33.58--
1210 7:13 am E 4.1 12.0----30.22- 47.5- 43.7---
1210 7:12 am E 5.1 15.0----30.22- 47.5- 43.7---
1210 7:11 am E 5.1 15.0----30.22- 47.5- 43.7---
1210 7:10 am E 4.1 13.0----30.22- 47.5- 43.7---
1210 7:09 am E 4.1 12.0----30.22- 47.3- 43.7---
1210 7:08 am E 2.9 9.9----30.22- 47.3- 43.7---
1210 7:07 am E 4.1 12.0----30.22- 47.3- 43.5---
1210 7:06 am E 5.1 12.0----30.22- 47.3- 43.5---
1210 7:05 am E 5.1 13.0----30.22- 47.3- 43.7---
1210 7:04 am E 5.1 14.0----30.22- 47.3- 43.5---
1210 7:03 am E 5.1 15.9----30.22- 47.3- 43.5---
1210 7:02 am E 5.1 15.0----30.22- 47.5- 43.5---
1210 7:01 am E 6.0 18.1----30.22- 47.5- 43.7---
1210 7:00 am E 6.0 19.0----30.22- 47.7- 43.7---
1210 6:59 am E 6.0 15.9----30.22- 47.7- 43.9---
1210 6:58 am E 6.0 17.1----30.22- 47.8- 43.9---
1210 6:57 am E 7.0 20.0----30.22- 47.8- 43.9---
1210 6:56 am E 7.0 21.0----30.22- 47.8- 43.9---
1210 6:55 am E 7.0 20.0----30.22- 47.8- 43.9---
1210 6:54 am E 7.0 21.0----30.22- 47.7- 43.9---
1210 6:53 am E 7.0 20.0----30.22- 47.7- 43.9---
1210 6:52 am E 6.0 20.0----30.22- 47.5- 43.7---
1210 6:51 am E 7.0 20.0----30.22- 47.5- 43.7---
1210 6:50 am E 5.1 15.9----30.22- 47.3- 43.7---
1210 6:49 am E 6.0 18.1----30.22- 47.3- 43.7---
1210 6:48 am E 5.1 15.0----30.22+0.00 47.3- 43.7---
1210 6:47 am E 5.1 14.0----30.22- 47.3- 43.7---
1210 6:46 am E 5.1 15.0----30.22- 47.1- 43.5---
1210 6:45 am E 5.1 13.0----30.22- 47.3- 43.7---
1210 6:44 am E 5.1 17.1----30.22- 47.1- 43.7---
1210 6:43 am E 6.0 21.0----30.22- 47.1- 43.5---
1210 6:42 amESE 6.0 17.1----30.22- 47.1- 43.5---
1210 6:41 am E 5.1 15.9----30.22- 47.1- 43.5---
1210 6:40 amESE 5.1 17.1----30.22- 47.1- 43.5---
1210 6:39 amESE 5.1 15.9----30.22- 47.1- 43.5---
1210 6:38 amESE 5.1 15.9----30.22- 47.1- 43.7---
1210 6:37 amESE 5.1 17.1----30.22- 47.5- 43.9---
1210 6:36 am E 6.0 17.1----30.22- 47.5- 44.1---
1210 6:35 am E 6.0 17.1----30.22- 47.3- 44.1---
1210 6:34 am E 5.1 14.0----30.22- 47.3- 44.1---
1210 6:33 am E 5.1 13.0----30.22- 47.1- 44.1---
1210 6:32 am E 2.9 7.0----30.22- 47.3- 44.1---
1210 6:31 amENE 2.9 8.9----30.22- 47.1- 44.1---
1210 6:30 am E 1.9 7.0----30.22- 46.9- 44.1---
1210 6:29 amENE 1.0 4.1----30.22- 46.9- 43.9---
1210 6:28 am NE 1.0 4.1----30.22- 46.9- 44.1---
1210 6:27 am NE 1.0 5.1----30.22- 46.8- 43.9---
1210 6:26 am- 0.0 2.9----30.22- 46.8- 44.1---
1210 6:25 am- 0.0 0.0----30.22- 46.8- 43.9---
1210 6:24 am- 0.0 1.0----30.22- 46.6- 43.7---
1210 6:23 am- 0.0 1.0----30.22- 46.8- 43.7---
1210 6:22 amENE 1.0 4.1----30.22- 46.8- 43.7---
1210 6:21 amENE 1.9 4.1----30.22- 46.8- 43.5---
1210 6:20 amENE 1.9 4.1----30.22- 46.8- 43.7---
1210 6:19 amENE 1.9 4.1----30.22- 46.6- 43.7---
1210 6:18 am- 0.0 2.9----30.22- 46.6- 43.5---
1210 6:17 am- 0.0 0.0----30.22- 46.4- 43.5---
1210 6:16 am- 0.0 0.0----30.23- 46.6- 43.7---
1210 6:15 am- 0.0 0.0----30.22- 46.6- 43.7---
1210 6:14 am- 0.0 0.0----30.22- 46.8- 43.7 33.57--
1210 6:13 am- 0.0 0.0----30.22- 46.6- 43.5---
1210 6:12 am- 0.0 0.0----30.22- 46.6- 43.5---
1210 6:11 am- 0.0 0.0----30.22- 46.6- 43.5---
1210 6:10 am- 0.0 1.0----30.22- 46.8- 43.7---
1210 6:09 am- 0.0 0.0----30.22- 46.8- 43.5---
1210 6:08 am- 0.0 0.0----30.22- 46.8- 43.7---
1210 6:07 amSSE 1.0 4.1----30.22- 46.8- 43.5---
1210 6:06 am S 1.9 5.1----30.22- 46.8- 43.5---
1210 6:05 am S 1.9 4.1----30.22- 46.6- 43.5---
1210 6:04 am- 0.0 1.9----30.22- 46.6- 43.5---
1210 6:03 am- 0.0 0.0----30.22- 46.4- 43.5---
1210 6:02 am- 0.0 0.0----30.22- 46.4- 43.5---
1210 6:01 am- 0.0 0.0----30.22- 46.6- 43.7---
1210 6:00 am- 0.0 0.0----30.22- 46.6- 43.7---
1210 5:59 am- 0.0 0.0----30.22- 46.8- 43.7---
1210 5:58 am- 0.0 0.0----30.22- 46.8- 43.7---
1210 5:57 am- 0.0 1.9----30.22- 46.8- 43.5---
1210 5:56 am- 0.0 0.0----30.22- 46.8- 43.7---
1210 5:55 am- 0.0 1.9----30.22- 46.8- 43.3---
1210 5:54 am SE 1.0 2.9----30.22- 47.1- 44.1---
1210 5:53 am- 0.0 2.9----30.22- 47.3- 44.1---
1210 5:52 am- 0.0 2.9----30.22- 47.1- 44.1---
1210 5:51 am- 0.0 0.0----30.22- 46.9- 44.1---
1210 5:50 am- 0.0 1.0----30.22- 46.9- 44.1---
1210 5:49 am- 0.0 1.0----30.22- 46.9- 44.1---
1210 5:48 am- 0.0 0.0----30.22+0.00 46.9- 44.1---
1210 5:47 am- 0.0 0.0----30.22- 47.1- 44.1---
1210 5:46 am- 0.0 2.9----30.22- 47.1- 44.1---
1210 5:45 am E 1.9 8.0----30.21- 47.1- 43.9---
1210 5:44 amENE 1.9 6.0----30.21- 47.1- 44.1---
1210 5:43 amENE 2.9 8.9----30.21- 47.1- 43.9---
1210 5:42 am E 4.1 9.9----30.21- 46.9- 43.9---
1210 5:41 am E 4.1 11.1----30.21- 46.6- 43.5---
1210 5:40 am E 4.1 11.1----30.21- 46.6- 43.5---
1210 5:39 am E 5.1 14.0----30.21- 46.4- 43.3---
1210 5:38 amESE 5.1 13.0----30.21- 46.4- 43.5---
1210 5:37 amESE 4.1 13.0----30.21- 46.4- 43.5---
1210 5:36 amESE 4.1 12.0----30.21- 46.2- 43.3---
1210 5:35 am E 4.1 14.0----30.21- 46.0- 43.3---
1210 5:34 am E 2.9 11.1----30.21- 45.7- 43.0---
1210 5:33 amESE 2.9 11.1----30.21- 45.5- 42.8---
1210 5:32 amESE 4.1 12.0----30.21- 45.1- 42.6---
1210 5:31 amESE 4.1 11.1----30.21- 44.8- 42.1---
1210 5:30 amESE 4.1 11.1----30.21- 44.8- 42.1---
1210 5:29 am SE 5.1 11.1----30.21- 45.0- 42.3---
1210 5:28 am SE 5.1 13.0----30.21- 45.1- 42.4---
1210 5:27 amESE 5.1 12.0----30.21- 45.1- 42.4---
1210 5:26 am SE 5.1 12.0----30.21- 45.3- 42.6---
1210 5:25 am SE 5.1 11.1----30.21- 45.7- 42.8---
1210 5:24 am SE 4.1 11.1----30.21- 45.9- 43.0---
1210 5:23 am SE 4.1 9.9----30.21- 46.0- 43.2---
1210 5:22 amESE 2.9 8.9----30.21- 46.0- 43.0---
1210 5:21 am SE 1.9 6.0----30.21- 46.0- 43.2---
1210 5:20 am SE 1.9 6.0----30.21- 46.2- 43.2---
1210 5:19 am SE 1.9 6.0----30.21- 46.4- 43.2---
1210 5:18 am SE 1.9 7.0----30.21- 46.6- 43.3---
1210 5:17 am SE 2.9 8.9----30.21- 46.6- 43.3---
1210 5:16 am SE 2.9 8.0----30.21- 46.8- 43.7---
1210 5:15 am SE 2.9 8.0----30.21- 46.9- 43.9---
1210 5:14 amESE 1.9 7.0----30.20- 47.1- 44.1 33.55--
1210 5:13 amESE 1.9 6.0----30.20- 47.3- 44.1---
1210 5:12 am E 1.9 5.1----30.20- 47.3- 44.1---
1210 5:11 am E 1.9 7.0----30.20- 47.1- 43.9---
1210 5:10 am E 2.9 8.0----30.20- 47.3- 44.1---
1210 5:09 amESE 2.9 8.0----30.20- 47.3- 44.1---
1210 5:08 amESE 2.9 9.9----30.20- 47.5- 44.1---
1210 5:07 am E 2.9 8.9----30.20- 47.5- 44.1---
1210 5:06 amESE 2.9 8.9----30.20- 47.5- 44.1---
1210 5:05 amESE 4.1 12.0----30.20- 47.3- 44.1---
1210 5:04 amESE 2.9 12.0----30.20- 47.3- 44.1---
1210 5:03 amESE 4.1 13.0----30.20- 47.3- 44.1---
1210 5:02 amESE 4.1 11.1----30.20- 47.3- 44.1---
1210 5:01 am E 4.1 11.1----30.20- 47.1- 43.9---
1210 5:00 am E 4.1 9.9----30.20- 47.1- 43.9---
1210 4:59 amESE 2.9 9.9----30.20- 46.9- 43.9---
1210 4:58 am E 2.9 11.1----30.20- 47.1- 43.9---
1210 4:57 am E 4.1 11.1----30.20- 47.1- 43.9---
1210 4:56 am E 4.1 11.1----30.20- 46.9- 43.9---
1210 4:55 am E 4.1 11.1----30.20- 46.9- 43.9---
1210 4:54 am E 4.1 9.9----30.20- 46.9- 43.9---
1210 4:53 am E 4.1 11.1----30.20- 46.9- 43.9---
1210 4:52 am E 4.1 12.0----30.20- 47.1- 43.9---
1210 4:51 amESE 4.1 13.0----30.20- 47.1- 43.9---
1210 4:50 amESE 4.1 9.9----30.20- 47.1- 43.9---
1210 4:49 amESE 4.1 11.1----30.20- 47.1- 43.9---
1210 4:48 am E 4.1 12.0----30.20-0.02 47.1- 44.1---
1210 4:47 am E 4.1 12.0----30.20- 47.1- 43.9---
1210 4:46 am E 4.1 9.9----30.20- 46.9- 43.9---
1210 4:45 am E 4.1 9.9----30.20- 46.9- 43.9---
1210 4:44 am E 2.9 9.9----30.20- 46.9- 43.9---
1210 4:43 amESE 4.1 9.9----30.20- 46.9- 43.9---
1210 4:42 amESE 4.1 14.0----30.20- 46.9- 43.9---
1210 4:41 amESE 5.1 13.0----30.20- 47.1- 43.9---
1210 4:40 amESE 5.1 14.0----30.20- 47.1- 43.9---
1210 4:39 amESE 5.1 14.0----30.20- 46.9- 43.9---
1210 4:38 amESE 4.1 12.0----30.20- 46.9- 43.9---
1210 4:37 amESE 5.1 14.0----30.20- 46.9- 43.9---
1210 4:36 amESE 4.1 12.0----30.20- 47.1- 44.1---
1210 4:35 amESE 4.1 13.0----30.21- 46.9- 43.9---
1210 4:34 amESE 5.1 13.0----30.21- 46.9- 44.1---
1210 4:33 amESE 5.1 14.0----30.21- 46.8- 43.7---
1210 4:32 amESE 5.1 13.0----30.21- 46.6- 43.7---
1210 4:31 amESE 4.1 13.0----30.21- 46.4- 43.5---
1210 4:30 am E 4.1 11.1----30.21- 46.4- 43.5---
1210 4:29 amESE 4.1 12.0----30.21- 46.2- 43.3---
1210 4:28 amESE 4.1 11.1----30.21- 46.2- 43.5---
1210 4:27 amESE 4.1 9.9----30.21- 46.0- 43.3---
1210 4:26 amESE 4.1 8.9----30.21- 46.0- 43.3---
1210 4:25 amESE 4.1 9.9----30.21- 46.0- 43.2---
1210 4:24 amESE 4.1 8.9----30.21- 46.0- 43.2---
1210 4:23 amESE 4.1 12.0----30.21- 45.9- 42.8---
1210 4:22 amESE 5.1 13.0----30.21- 45.9- 43.0---
1210 4:21 amESE 5.1 14.0----30.21- 46.2- 43.3---
1210 4:20 amESE 5.1 12.0----30.21- 46.2- 43.5---
1210 4:19 amESE 5.1 14.0----30.21- 46.0- 43.2---
1210 4:18 amESE 5.1 17.1----30.21- 45.9- 43.2---
1210 4:17 amESE 5.1 15.0----30.21- 45.9- 42.8---
1210 4:16 amESE 6.0 15.9----30.21- 45.7- 42.8---
1210 4:15 amESE 5.1 15.0----30.21- 45.9- 43.0---
1210 4:14 amESE 6.0 14.0----30.21- 45.9- 42.8 33.55--
1210 4:13 amESE 5.1 14.0----30.21- 45.7- 42.8---
1210 4:12 amESE 5.1 13.0----30.21- 45.7- 42.8---
1210 4:11 amESE 5.1 13.0----30.21- 45.9- 43.0---
1210 4:10 amESE 5.1 14.0----30.21- 46.0- 43.0---
1210 4:09 amESE 5.1 13.0----30.21- 46.0- 43.0---
1210 4:08 amESE 6.0 15.0----30.21- 46.2- 43.2---
1210 4:07 amESE 6.0 15.9----30.21- 46.2- 43.2---
1210 4:06 amESE 6.0 15.9----30.21- 46.4- 43.3---
1210 4:05 amESE 6.0 15.9----30.21- 46.4- 43.3---
1210 4:04 amESE 5.1 14.0----30.21- 46.6- 43.5---
1210 4:03 amESE 5.1 15.0----30.21- 46.6- 43.5---
1210 4:02 amESE 5.1 14.0----30.21- 46.6- 43.5---
1210 4:01 amESE 4.1 12.0----30.21- 46.6- 43.5---
1210 4:00 amESE 4.1 9.9----30.21- 46.6- 43.5---
1210 3:59 amESE 2.9 9.9----30.21- 46.6- 43.5---
1210 3:58 amESE 4.1 9.9----30.21- 46.6- 43.5---
1210 3:57 amESE 2.9 11.1----30.21- 46.4- 43.5---
1210 3:56 amESE 2.9 8.9----30.21- 46.6- 43.5---
1210 3:55 amESE 2.9 8.0----30.21- 46.6- 43.5---
1210 3:54 amESE 2.9 8.9----30.21- 46.6- 43.5---
1210 3:53 amESE 4.1 11.1----30.21- 46.6- 43.5---
1210 3:52 amESE 5.1 13.0----30.21- 46.8- 43.5---
1210 3:51 amESE 5.1 13.0----30.21- 46.8- 43.7---
1210 3:50 amESE 5.1 13.0----30.21- 46.8- 43.7---
1210 3:49 amESE 5.1 14.0----30.21- 46.8- 43.5---
1210 3:48 amESE 6.0 14.0----30.22-0.01 46.8- 43.7---
1210 3:47 amESE 5.1 13.0----30.22- 46.8- 43.7---
1210 3:46 amESE 5.1 13.0----30.22- 46.6- 43.7---
1210 3:45 am SE 5.1 14.0----30.22- 46.6- 43.5---
1210 3:44 am SE 5.1 15.9----30.22- 46.4- 43.5---
1210 3:43 am SE 5.1 15.0----30.22- 46.4- 43.3---
1210 3:42 amESE 5.1 14.0----30.22- 46.4- 43.3---
1210 3:41 amESE 5.1 12.0----30.22- 46.2- 43.3---
1210 3:40 am SE 5.1 11.1----30.21- 46.2- 43.3---
1210 3:39 amESE 4.1 11.1----30.22- 46.2- 43.3---
1210 3:38 amESE 4.1 11.1----30.22- 46.2- 43.3---
1210 3:37 amESE 4.1 11.1----30.21- 46.2- 43.3---
1210 3:36 am SE 4.1 12.0----30.21- 46.2- 43.3---
1210 3:35 am SE 5.1 13.0----30.21- 46.2- 43.2---
1210 3:34 amESE 5.1 13.0----30.21- 46.2- 43.2---
1210 3:33 amESE 6.0 15.0----30.21- 46.2- 43.2---
1210 3:32 amESE 6.0 15.9----30.21- 46.2- 43.2---
1210 3:31 amESE 6.0 15.9----30.21- 46.2- 43.0---
1210 3:30 amESE 6.0 15.0----30.21- 46.2- 43.3---
1210 3:29 amESE 6.0 15.0----30.21- 46.4- 43.3---
1210 3:28 amESE 6.0 14.0----30.21- 46.6- 43.3---
1210 3:27 amESE 5.1 13.0----30.21- 46.8- 43.5---
1210 3:26 amESE 5.1 14.0----30.21- 46.8- 43.5---
1210 3:25 amESE 5.1 13.0----30.21- 46.8- 43.5---
1210 3:24 amESE 6.0 15.0----30.21- 46.9- 43.9---
1210 3:23 amESE 6.0 15.0----30.21- 47.1- 43.9---
1210 3:22 amESE 5.1 14.0----30.21- 47.1- 43.9---
1210 3:21 amESE 6.0 17.1----30.21- 47.1- 43.9---
1210 3:20 amESE 5.1 15.0----30.21- 47.1- 43.9---
1210 3:19 amESE 5.1 15.0----30.21- 47.1- 43.9---
1210 3:18 amESE 5.1 14.0----30.21- 46.9- 43.7---
1210 3:17 amESE 5.1 12.0----30.21- 46.9- 43.7---
1210 3:16 amESE 5.1 13.0----30.21- 46.9- 43.7---
1210 3:15 amESE 5.1 14.0----30.21- 47.1- 43.9---
1210 3:14 amESE 4.1 11.1----30.21- 47.3- 43.9 33.58--
1210 3:13 amESE 4.1 13.0----30.21- 47.5- 43.9---
1210 3:12 amESE 4.1 11.1----30.21- 47.7- 44.2---
1210 3:11 amESE 4.1 9.9----30.21- 47.7- 44.2---
1210 3:10 amESE 4.1 9.9----30.21- 47.8- 44.2---
1210 3:09 amESE 4.1 12.0----30.21- 47.8- 44.4---
1210 3:08 amESE 2.9 9.9----30.21- 47.8- 44.2---
1210 3:07 amESE 2.9 8.9----30.21- 47.8- 44.2---
1210 3:06 amESE 2.9 8.9----30.22- 48.0- 44.4---
1210 3:05 amESE 2.9 9.9----30.22- 48.2- 44.4---
1210 3:04 amESE 2.9 8.9----30.22- 48.2- 44.4---
1210 3:03 amESE 2.9 11.1----30.22- 48.0- 44.4---
1210 3:02 amESE 4.1 9.9----30.22- 48.2- 44.4---
1210 3:01 amESE 4.1 11.1----30.22- 48.2- 44.4---
1210 3:00 amESE 2.9 8.9----30.22- 48.2- 44.4---
1210 2:59 amESE 4.1 8.9----30.22- 48.2- 44.4---
1210 2:58 amESE 4.1 11.1----30.22- 48.2- 44.6---
1210 2:57 amESE 4.1 11.1----30.22- 48.2- 44.4---
1210 2:56 amESE 4.1 13.0----30.22- 48.2- 44.4---
1210 2:55 amESE 4.1 12.0----30.22- 48.2- 44.4---
1210 2:54 am E 2.9 11.1----30.22- 48.2- 44.4---
1210 2:53 am E 4.1 9.9----30.22- 48.2- 44.4---
1210 2:52 am E 4.1 13.0----30.22- 48.0- 44.2---
1210 2:51 amESE 4.1 14.0----30.22- 48.0- 44.1---
1210 2:50 amESE 4.1 13.0----30.22- 47.8- 44.1---
1210 2:49 amESE 4.1 11.1----30.22- 48.2- 44.1---
1210 2:48 amESE 5.1 13.0----30.22-0.02 49.1- 45.0---
1210 2:47 amESE 4.1 12.0----30.22- 49.1- 45.1---
1210 2:46 am E 4.1 13.0----30.22- 49.3- 45.0---
1210 2:45 am E 5.1 14.0----30.22- 49.3- 45.0---
1210 2:44 am E 5.1 15.0----30.22- 49.3- 45.1---
1210 2:43 am E 5.1 15.0----30.22- 49.3- 45.1---
1210 2:42 am E 5.1 15.0----30.22- 49.5- 45.1---
1210 2:41 am E 5.1 13.0----30.22- 49.5- 45.1---
1210 2:40 am E 5.1 15.9----30.22- 49.5- 45.3---
1210 2:39 am E 4.1 11.1----30.22- 49.5- 45.1---
1210 2:38 am E 5.1 15.9----30.22- 49.5- 45.1---
1210 2:37 am E 5.1 14.0----30.22- 49.3- 45.1---
1210 2:36 am E 5.1 15.0----30.22- 49.3- 45.1---
1210 2:35 am E 4.1 13.0----30.22- 49.3- 45.1---
1210 2:34 am E 6.0 17.1----30.22- 48.9- 45.1---
1210 2:33 am E 4.1 12.0----30.22- 48.9- 45.1---
1210 2:32 am E 4.1 11.1----30.22- 48.9- 45.0---
1210 2:31 am E 5.1 13.0----30.22- 48.9- 45.1---
1210 2:30 am E 4.1 13.0----30.22- 48.9- 45.0---
1210 2:29 am E 5.1 14.0----30.22- 49.1- 45.1---
1210 2:28 amESE 2.9 9.9----30.22- 49.1- 45.0---
1210 2:27 amESE 2.9 9.9----30.22- 49.1- 45.1---
1210 2:26 am E 4.1 12.0----30.22- 49.3- 45.1---
1210 2:25 amESE 4.1 14.0----30.22- 49.5- 45.1---
1210 2:24 am E 4.1 9.9----30.22- 49.5- 45.1---
1210 2:23 amESE 4.1 11.1----30.22- 49.6- 45.3---
1210 2:22 amESE 4.1 15.0----30.22- 49.6- 45.3---
1210 2:21 am E 5.1 15.0----30.22- 49.8- 45.3---
1210 2:20 am E 5.1 13.0----30.22- 49.8- 45.5---
1210 2:19 am E 5.1 15.0----30.22- 49.8- 45.5---
1210 2:18 am E 4.1 11.1----30.22- 49.8- 45.3---
1210 2:17 am E 4.1 11.1----30.22- 49.8- 45.5---
1210 2:16 am E 4.1 11.1----30.22- 50.0- 45.5---
1210 2:15 am E 4.1 12.0----30.22- 50.0- 45.5---
1210 2:14 am E 4.1 11.1----30.22- 50.0- 45.7 33.57--
1210 2:13 am E 4.1 9.9----30.22- 50.0- 45.5---
1210 2:12 am E 4.1 11.1----30.22- 50.0- 45.5---
1210 2:11 amENE 2.9 9.9----30.22- 50.0- 45.5---
1210 2:10 am E 5.1 12.0----30.22- 50.2- 45.7---
1210 2:09 am E 4.1 9.9----30.22- 50.0- 45.7---
1210 2:08 am E 2.9 8.9----30.22- 50.2- 45.7---
1210 2:07 am E 2.9 8.9----30.22- 50.2- 45.7---
1210 2:06 am E 2.9 9.9----30.22- 50.2- 45.9---
1210 2:05 amENE 2.9 9.9----30.22- 50.2- 45.9---
1210 2:04 amENE 2.9 9.9----30.23- 50.2- 45.9---
1210 2:03 amENE 1.9 8.9----30.23- 50.2- 45.9---
1210 2:02 amENE 2.9 11.1----30.23- 50.2- 45.7---
1210 2:01 amENE 1.9 6.0----30.23- 50.2- 45.7---
1210 2:00 am NE 1.9 5.1----30.23- 50.2- 45.7---
1210 1:59 am NE 1.9 6.0----30.23- 50.2- 45.7---
1210 1:58 am NE 1.9 7.0----30.23- 50.2- 45.7---
1210 1:57 am NE 1.9 6.0----30.23- 50.2- 45.5---
1210 1:56 am NE 1.9 6.0----30.23- 50.4- 45.5---
1210 1:55 am NE 2.9 7.0----30.23- 50.2- 45.5---
1210 1:54 amNNE 2.9 8.0----30.23- 50.4- 45.7---
1210 1:53 amNNE 2.9 8.0----30.23- 50.4- 45.7---
1210 1:52 amNNE 1.9 7.0----30.23- 50.4- 45.7---
1210 1:51 amNNE 2.9 7.0----30.22- 50.4- 45.7---
1210 1:50 amNNE 1.9 6.0----30.22- 50.4- 45.9---
1210 1:49 amNNE 2.9 6.0----30.22- 50.4- 45.9---
1210 1:48 amNNE 1.9 5.1----30.22-0.02 50.4- 45.9---
1210 1:47 am N 1.9 6.0----30.22- 50.4- 45.9---
1210 1:46 am N 1.9 6.0----30.22- 50.4- 45.9---
1210 1:45 am N 1.9 5.1----30.22- 50.2- 45.9---
1210 1:44 am N 1.0 2.9----30.22- 50.2- 45.9---
1210 1:43 amNNE 1.0 4.1----30.22- 50.4- 45.9---
1210 1:42 amNNE 1.0 5.1----30.22- 50.4- 45.9---
1210 1:41 amNNE 1.9 6.0----30.22- 50.4- 45.7---
1210 1:40 am NE 1.9 6.0----30.22- 50.4- 45.7---
1210 1:39 am NE 2.9 8.0----30.22- 50.4- 45.7---
1210 1:38 amNNE 2.9 8.0----30.22- 50.4- 45.9---
1210 1:37 am NE 1.9 6.0----30.22- 50.5- 46.0---
1210 1:36 am NE 2.9 8.0----30.22- 50.5- 46.0---
1210 1:35 am NE 2.9 7.0----30.22- 50.4- 45.9---
1210 1:34 am NE 2.9 8.9----30.22- 50.4- 46.0---
1210 1:33 amNNE 1.9 6.0----30.22- 50.4- 45.9---
1210 1:32 am N 1.9 6.0----30.22- 50.2- 45.9---
1210 1:31 am N 1.9 4.1----30.23- 50.2- 45.7---
1210 1:30 amNNE 1.0 4.1----30.23- 50.2- 45.9---
1210 1:29 am N 1.0 4.1----30.23- 50.2- 45.7---
1210 1:28 amNNE 1.0 2.9----30.23- 50.2- 45.9---
1210 1:27 am- 0.0 2.9----30.22- 50.2- 45.7---
1210 1:26 am NE 1.9 6.0----30.22- 50.2- 45.9---
1210 1:25 amENE 1.9 8.0----30.22- 50.2- 45.9---
1210 1:24 am NE 2.9 8.9----30.22- 49.8- 45.9---
1210 1:23 am NE 1.0 8.0----30.22- 49.6- 45.7---
1210 1:22 am- 0.0 1.0----30.22- 49.6- 45.9---
1210 1:21 am- 0.0 0.0----30.22- 49.6- 45.5---
1210 1:20 am- 0.0 2.9----30.22- 49.5- 45.5---
1210 1:19 am- 0.0 1.9----30.23- 49.5- 45.5---
1210 1:18 am N 1.0 5.1----30.23- 49.5- 45.5---
1210 1:17 am N 1.9 5.1----30.23- 49.6- 45.5---
1210 1:16 am N 1.0 4.1----30.23- 49.6- 45.5---
1210 1:15 am E 1.0 5.1----30.23- 49.6- 45.5---
1210 1:14 am E 1.9 7.0----30.23- 49.8- 45.5 33.57--
1210 1:13 am E 1.9 7.0----30.23- 49.8- 45.5---
1210 1:12 am E 2.9 9.9----30.22- 49.8- 45.7---
1210 1:11 am E 2.9 8.9----30.23- 49.8- 45.5---
1210 1:10 am E 4.1 11.1----30.22- 49.8- 45.5---
1210 1:09 am E 4.1 12.0----30.22- 50.0- 45.5---
1210 1:08 am E 5.1 14.0----30.22- 50.0- 45.5---
1210 1:07 am E 5.1 13.0----30.22- 50.0- 45.3---
1210 1:06 am E 5.1 13.0----30.22- 50.2- 45.5---
1210 1:05 am E 6.0 18.1----30.22- 50.2- 45.7---
1210 1:04 am E 7.0 19.0----30.22- 50.2- 45.5---
1210 1:03 am E 7.0 21.0----30.22- 50.2- 45.7---
1210 1:02 am E 7.0 20.0----30.22- 50.2- 45.5---
1210 1:01 am E 7.0 18.1----30.22- 50.2- 45.7---
1210 1:00 am E 7.0 18.1----30.22- 50.2- 45.7---
121012:59 am E 7.0 19.0----30.22- 50.2- 45.7---
121012:58 am E 8.0 22.0----30.22- 50.2- 45.7---
121012:57 am E 8.0 22.0----30.22- 50.0- 45.5---
121012:56 am E 8.0 22.0----30.22- 50.2- 45.7---
121012:55 am E 7.0 19.0----30.22- 50.0- 45.5---
121012:54 am E 6.0 20.0----30.23- 50.0- 45.5---
121012:53 am E 6.0 19.0----30.23- 50.2- 45.7---
121012:52 am E 6.0 20.0----30.23- 50.2- 45.5---
121012:51 am E 7.0 21.0----30.22- 50.2- 45.7---
121012:50 am E 7.0 22.0----30.22- 50.4- 45.7---

Ocean Conditions at MLSC1 as of
(1:00 am PST)
0900 GMT on 12/11/2018:

These oceanographic data are displayed in rounded times.

     

Click on the graph icon in the table below to see a time series plot of the last five days of that observation.

 Depth (DEPTH): 0.0 ft
5-day plot - Ocean TemperatureOcean Temperature (OTMP):57.74 °F
5-day plot - SalinitySalinity (SAL):33.59 psu
5-day plot - Oxygen Concentration (O2PPM)Oxygen Concentration (O2PPM): 7.09 ppm
Previous observations
5-day plot - Ocean Temperature 5-day plot - Conductivity 5-day plot - Salinity 5-day plot - Oxygen Concentration (O2PCT) 5-day plot - Oxygen Concentration (O2PPM) 5-day plot - Chlorophyll 5-day plot - Turbidity 5-day plot - pH 5-day plot - Eh
MM   DD    TIME
(PST)
DEPTH
ft
       OTMP
°F
   COND
mS/cm
  SAL
psu
  O2%
%
   O2PPM
ppm
CLCON
ug/l
TURB
FTU
PH EH
mv
121112:00 am 0.057.76-33.58- 7.23----
121011:00 pm 0.057.70-33.58- 7.07----
121010:00 pm 0.058.08-33.57- 7.72----
12109:00 pm 0.058.26-33.57- 7.33----
12108:00 pm 0.058.24-33.55-10.01----
12107:00 pm 0.058.32-33.55- 8.33----
12106:00 pm 0.058.51-33.55- 7.39----
12105:00 pm 0.058.62-33.53- 7.48----
12104:00 pm 0.058.30-33.53- 7.35----
12103:00 pm 0.057.40-33.57- 6.73----
12102:00 pm 0.054.55-33.67- 4.91----
12101:00 pm 0.055.72-33.63- 7.08----
121012:00 pm 0.058.55-33.58- 7.71----
121011:00 am 0.058.24-33.59- 7.96----
121010:00 am 0.057.74-33.59- 8.84----
12109:00 am 0.057.99-33.59- 8.46----
12108:00 am 0.057.70-33.59- 8.12----
12107:00 am 0.057.15-33.58- 7.93----
12106:00 am 0.057.47-33.57- 7.38----
12105:00 am 0.057.69-33.55- 8.16----
12104:00 am 0.057.72-33.55- 9.08----
12103:00 am 0.057.74-33.58- 7.23----
12102:00 am 0.057.85-33.57- 7.19----
12101:00 am 0.057.60-33.57- 6.73----

Solar Radiation Conditions at MLSC1 as of
(1:00 am PST)
0900 GMT on 12/11/2018:
     

Click on the graph icon in the table below to see a time series plot of the last five days of that observation.

5-day plot - Short Wave Radiation 1Short Wave Radiation 1 (SRAD1): -2.0watts/meter2
Previous observations
5-day plot - Short Wave Radiation 1 5-day plot - Short Wave Radiation 2 5-day plot - Long Wave Radiation
MM   DD    TIME
(PST)
  SRAD1
w/m2
   SWRAD
w/m2
    LWRAD
w/m2
121112:00 am -2.0--
121011:00 pm -2.0--
121010:00 pm -2.0--
12109:00 pm -2.0--
12108:00 pm -2.0--
12107:00 pm -2.0--
12106:00 pm -2.0--
12105:00 pm -2.0--
12104:00 pm 23.0--
12103:00 pm 258.0--
12102:00 pm 620.0--
12101:00 pm 844.0--
121012:00 pm 777.0--
121011:00 am 593.0--
121010:00 am 471.0--
12109:00 am 466.0--
12108:00 am 240.0--
12107:00 am 43.0--
12106:00 am -1.0--
12105:00 am -1.0--
12104:00 am -1.0--
12103:00 am -1.0--
12102:00 am -1.0--
12101:00 am -2.0--

Description of Measurements

Links which are specific to this station are listed below:

Real Time Data in tabular form for the last forty-five days.

Historical Data & Climatic Summaries for quality controlled data for the current month, previous months, and previous years.